Wetterdaten: Samstag, 23.09.2023
Datum Zeit Temp. Aussen Temp. o. S. Temp +5cm Feuchte Auss Luftdruck Regen Sonnenschein Regendauer Solar Windben Empfang
23.09.2023 00:00 12,3 C 11,7 C 7,8 C 96 % 1007,0 hPa 0,0 l/m 0 min 0 min 0 W/m 0,0 km/h (0 Bft) 97,87 %
23.09.2023 00:02 12,3 C 11,7 C 7,8 C 96 % 1007,0 hPa 0,0 l/m 0 min 0 min 0 W/m 6,4 km/h (2 Bft) 91,11 %
23.09.2023 00:04 12,3 C 11,7 C 7,8 C 96 % 1007,1 hPa 0,0 l/m 0 min 0 min 0 W/m 9,7 km/h (2 Bft) 100,00 %
23.09.2023 00:08 12,3 C 11,7 C 7,8 C 96 % 1007,1 hPa 0,0 l/m 0 min 0 min 0 W/m 12,9 km/h (3 Bft) 98,94 %
23.09.2023 00:09 12,3 C 11,7 C 7,8 C 96 % 1007,1 hPa 0,0 l/m 0 min 0 min 0 W/m 6,4 km/h (2 Bft) 100,00 %
23.09.2023 00:12 12,3 C 11,7 C 7,8 C 96 % 1007,2 hPa 0,0 l/m 0 min 0 min 0 W/m 6,4 km/h (2 Bft) 95,77 %
23.09.2023 00:14 12,3 C 11,7 C 7,8 C 96 % 1007,2 hPa 0,0 l/m 0 min 0 min 0 W/m 6,4 km/h (2 Bft) 97,87 %
23.09.2023 00:16 12,3 C 11,7 C 7,8 C 96 % 1007,2 hPa 0,0 l/m 0 min 0 min 0 W/m 12,9 km/h (3 Bft) 95,65 %
23.09.2023 00:18 12,3 C 11,7 C 7,8 C 96 % 1007,2 hPa 0,0 l/m 0 min 0 min 0 W/m 6,4 km/h (2 Bft) 97,87 %
23.09.2023 00:20 12,3 C 11,7 C 7,8 C 96 % 1007,2 hPa 0,0 l/m 0 min 0 min 0 W/m 6,4 km/h (2 Bft) 97,87 %
23.09.2023 00:22 12,3 C 11,7 C 7,8 C 96 % 1007,1 hPa 0,0 l/m 0 min 0 min 0 W/m 6,4 km/h (2 Bft) 93,62 %
23.09.2023 00:24 12,3 C 11,7 C 7,8 C 96 % 1007,2 hPa 0,0 l/m 0 min 0 min 0 W/m 6,4 km/h (2 Bft) 95,74 %
23.09.2023 00:26 12,3 C 11,7 C 8,3 C 96 % 1007,2 hPa 0,0 l/m 0 min 0 min 0 W/m 6,4 km/h (2 Bft) 95,74 %
23.09.2023 00:28 12,3 C 11,7 C 8,3 C 96 % 1007,2 hPa 0,0 l/m 0 min 0 min 0 W/m 9,7 km/h (2 Bft) 93,62 %
23.09.2023 00:30 12,4 C 11,7 C 7,8 C 96 % 1007,2 hPa 0,0 l/m 0 min 0 min 0 W/m 3,2 km/h (1 Bft) 93,62 %
23.09.2023 00:32 12,4 C 11,7 C 8,3 C 96 % 1007,3 hPa 0,0 l/m 0 min 0 min 0 W/m 9,7 km/h (2 Bft) 95,74 %
23.09.2023 00:34 12,4 C 11,7 C 8,3 C 96 % 1007,3 hPa 0,0 l/m 0 min 2 min 0 W/m 6,4 km/h (2 Bft) 95,74 %
23.09.2023 00:36 12,4 C 11,7 C 8,3 C 96 % 1007,3 hPa 0,0 l/m 0 min 0 min 0 W/m 6,4 km/h (2 Bft) 95,65 %
23.09.2023 00:38 12,4 C 11,7 C 8,3 C 96 % 1007,3 hPa 0,0 l/m 0 min 0 min 0 W/m 3,2 km/h (1 Bft) 95,74 %
23.09.2023 00:40 12,4 C 11,7 C 8,3 C 96 % 1007,3 hPa 0,0 l/m 0 min 0 min 0 W/m 6,4 km/h (2 Bft) 93,62 %
23.09.2023 00:42 12,4 C 11,7 C 8,3 C 96 % 1007,3 hPa 0,0 l/m 0 min 0 min 0 W/m 6,4 km/h (2 Bft) 95,74 %
23.09.2023 00:44 12,4 C 11,7 C 8,3 C 96 % 1007,5 hPa 0,0 l/m 0 min 0 min 0 W/m 3,2 km/h (1 Bft) 95,74 %
23.09.2023 00:46 12,4 C 11,7 C 8,3 C 96 % 1007,5 hPa 0,0 l/m 0 min 0 min 0 W/m 6,4 km/h (2 Bft) 95,74 %
23.09.2023 00:48 12,4 C 11,7 C 8,3 C 96 % 1007,5 hPa 0,0 l/m 0 min 0 min 0 W/m 3,2 km/h (1 Bft) 96,23 %
23.09.2023 00:50 12,4 C 11,7 C 8,3 C 96 % 1007,6 hPa 0,0 l/m 0 min 0 min 0 W/m 6,4 km/h (2 Bft) 95,74 %
23.09.2023 00:52 12,4 C 11,7 C 8,3 C 96 % 1007,6 hPa 0,0 l/m 0 min 0 min 0 W/m 6,4 km/h (2 Bft) 100,00 %
23.09.2023 00:54 12,4 C 11,7 C 8,3 C 96 % 1007,7 hPa 0,0 l/m 0 min 0 min 0 W/m 6,4 km/h (2 Bft) 98,11 %
23.09.2023 00:56 12,4 C 11,7 C 8,3 C 96 % 1007,7 hPa 0,0 l/m 0 min 0 min 0 W/m 6,4 km/h (2 Bft) 96,15 %
23.09.2023 00:58 12,4 C 11,7 C 8,3 C 96 % 1007,8 hPa 0,0 l/m 0 min 0 min 0 W/m 6,4 km/h (2 Bft) 100,00 %
23.09.2023 01:04 12,4 C 11,7 C 8,3 C 97 % 1007,9 hPa 0,0 l/m 0 min 0 min 0 W/m 12,9 km/h (3 Bft) 94,59 %
23.09.2023 01:05 12,3 C 11,7 C 8,3 C 97 % 1007,9 hPa 0,0 l/m 0 min 0 min 0 W/m 12,9 km/h (3 Bft) 100,00 %
23.09.2023 01:08 12,3 C 11,7 C 8,3 C 97 % 1007,8 hPa 0,0 l/m 0 min 0 min 0 W/m 12,9 km/h (3 Bft) 100,00 %
23.09.2023 01:10 12,3 C 11,7 C 8,3 C 97 % 1007,8 hPa 0,0 l/m 0 min 0 min 0 W/m 19,3 km/h (3 Bft) 97,87 %
23.09.2023 01:12 12,3 C 11,7 C 8,3 C 97 % 1007,9 hPa 0,0 l/m 0 min 0 min 0 W/m 12,9 km/h (3 Bft) 100,00 %
23.09.2023 01:14 12,3 C 11,7 C 8,3 C 97 % 1007,9 hPa 0,0 l/m 0 min 0 min 0 W/m 6,4 km/h (2 Bft) 100,00 %
23.09.2023 01:16 12,3 C 11,7 C 7,8 C 97 % 1007,9 hPa 0,0 l/m 0 min 2 min 0 W/m 12,9 km/h (3 Bft) 100,00 %
23.09.2023 01:18 12,3 C 11,7 C 7,8 C 97 % 1007,9 hPa 0,0 l/m 0 min 2 min 0 W/m 6,4 km/h (2 Bft) 100,00 %
23.09.2023 01:20 12,2 C 11,7 C 7,8 C 97 % 1007,9 hPa 0,2 l/m 0 min 2 min 0 W/m 19,3 km/h (3 Bft) 100,00 %
23.09.2023 01:22 12,2 C 11,7 C 7,8 C 96 % 1007,8 hPa 0,0 l/m 0 min 2 min 0 W/m 6,4 km/h (2 Bft) 97,87 %
23.09.2023 01:24 12,2 C 11,1 C 7,8 C 96 % 1007,8 hPa 0,2 l/m 0 min 2 min 0 W/m 12,9 km/h (3 Bft) 100,00 %
23.09.2023 01:26 12,2 C 11,1 C 7,8 C 96 % 1007,9 hPa 0,0 l/m 0 min 2 min 0 W/m 9,7 km/h (2 Bft) 100,00 %
23.09.2023 01:28 12,1 C 11,1 C 7,8 C 96 % 1008,0 hPa 0,0 l/m 0 min 0 min 0 W/m 12,9 km/h (3 Bft) 97,87 %
23.09.2023 01:30 12,1 C 11,1 C 7,8 C 96 % 1008,0 hPa 0,0 l/m 0 min 2 min 0 W/m 12,9 km/h (3 Bft) 100,00 %
23.09.2023 01:32 12,1 C 11,1 C 7,8 C 96 % 1008,0 hPa 0,0 l/m 0 min 2 min 0 W/m 19,3 km/h (3 Bft) 100,00 %
23.09.2023 01:34 12,1 C 11,1 C 7,8 C 96 % 1008,0 hPa 0,0 l/m 0 min 2 min 0 W/m 12,9 km/h (3 Bft) 100,00 %
23.09.2023 01:36 12,0 C 11,1 C 7,8 C 96 % 1008,1 hPa 0,0 l/m 0 min 2 min 0 W/m 22,5 km/h (4 Bft) 100,00 %
23.09.2023 01:38 12,0 C 11,1 C 7,8 C 96 % 1008,0 hPa 0,0 l/m 0 min 0 min 0 W/m 16,1 km/h (3 Bft) 97,83 %
23.09.2023 01:40 12,0 C 11,1 C 7,8 C 97 % 1008,0 hPa 0,0 l/m 0 min 0 min 0 W/m 16,1 km/h (3 Bft) 97,87 %
23.09.2023 01:42 12,0 C 11,1 C 7,8 C 97 % 1008,1 hPa 0,0 l/m 0 min 0 min 0 W/m 12,9 km/h (3 Bft) 100,00 %
23.09.2023 01:44 12,0 C 11,1 C 7,8 C 97 % 1008,1 hPa 0,0 l/m 0 min 0 min 0 W/m 12,9 km/h (3 Bft) 100,00 %
23.09.2023 01:46 12,0 C 11,1 C 7,8 C 97 % 1008,1 hPa 0,0 l/m 0 min 0 min 0 W/m 12,9 km/h (3 Bft) 100,00 %
23.09.2023 01:48 12,0 C 11,1 C 7,8 C 97 % 1008,1 hPa 0,0 l/m 0 min 0 min 0 W/m 12,9 km/h (3 Bft) 100,00 %
23.09.2023 01:50 11,9 C 11,1 C 7,8 C 97 % 1008,0 hPa 0,0 l/m 0 min 0 min 0 W/m 16,1 km/h (3 Bft) 97,87 %
23.09.2023 01:52 11,9 C 11,1 C 7,8 C 97 % 1008,1 hPa 0,0 l/m 0 min 0 min 0 W/m 12,9 km/h (3 Bft) 100,00 %
23.09.2023 01:54 11,9 C 11,1 C 7,8 C 96 % 1008,0 hPa 0,0 l/m 0 min 0 min 0 W/m 16,1 km/h (3 Bft) 100,00 %
23.09.2023 01:56 11,8 C 11,1 C 7,8 C 96 % 1008,1 hPa 0,0 l/m 0 min 0 min 0 W/m 9,7 km/h (2 Bft) 97,87 %
23.09.2023 01:58 11,8 C 11,1 C 7,8 C 96 % 1008,1 hPa 0,0 l/m 0 min 0 min 0 W/m 6,4 km/h (2 Bft) 100,00 %
23.09.2023 02:00 11,9 C 11,1 C 7,8 C 97 % 1008,2 hPa 0,0 l/m 0 min 0 min 0 W/m 6,4 km/h (2 Bft) 100,00 %
23.09.2023 02:02 11,9 C 11,1 C 7,8 C 97 % 1008,2 hPa 0,0 l/m 0 min 0 min 0 W/m 3,2 km/h (1 Bft) 97,87 %
23.09.2023 02:04 11,9 C 11,1 C 7,8 C 97 % 1008,2 hPa 0,0 l/m 0 min 0 min 0 W/m 3,2 km/h (1 Bft) 96,15 %
23.09.2023 02:06 11,9 C 11,1 C 7,8 C 97 % 1008,3 hPa 0,0 l/m 0 min 0 min 0 W/m 3,2 km/h (1 Bft) 95,83 %
23.09.2023 02:08 11,8 C 11,1 C 7,8 C 97 % 1008,3 hPa 0,0 l/m 0 min 0 min 0 W/m 12,9 km/h (3 Bft) 95,74 %
23.09.2023 02:10 11,8 C 11,1 C 7,8 C 96 % 1008,3 hPa 0,0 l/m 0 min 0 min 0 W/m 12,9 km/h (3 Bft) 95,65 %
23.09.2023 02:14 11,6 C 10,6 C 7,2 C 96 % 1008,4 hPa 0,0 l/m 0 min 0 min 0 W/m 12,9 km/h (3 Bft) 100,00 %
23.09.2023 02:16 11,6 C 10,6 C 7,2 C 96 % 1008,4 hPa 0,0 l/m 0 min 0 min 0 W/m 12,9 km/h (3 Bft) 100,00 %
23.09.2023 02:18 11,6 C 10,6 C 7,2 C 96 % 1008,4 hPa 0,0 l/m 0 min 0 min 0 W/m 12,9 km/h (3 Bft) 93,62 %
23.09.2023 02:20 11,5 C 10,6 C 7,2 C 96 % 1008,5 hPa 0,0 l/m 0 min 0 min 0 W/m 3,2 km/h (1 Bft) 95,74 %
23.09.2023 02:22 11,4 C 10,6 C 7,2 C 96 % 1008,5 hPa 0,0 l/m 0 min 0 min 0 W/m 6,4 km/h (2 Bft) 95,74 %
23.09.2023 02:24 11,4 C 10,6 C 7,2 C 96 % 1008,5 hPa 0,0 l/m 0 min 0 min 0 W/m 12,9 km/h (3 Bft) 93,62 %
23.09.2023 02:26 11,4 C 10,6 C 7,2 C 96 % 1008,5 hPa 0,0 l/m 0 min 0 min 0 W/m 6,4 km/h (2 Bft) 93,62 %
23.09.2023 02:28 11,4 C 10,6 C 7,2 C 96 % 1008,5 hPa 0,0 l/m 0 min 0 min 0 W/m 6,4 km/h (2 Bft) 93,48 %
23.09.2023 02:30 11,4 C 10,6 C 7,2 C 96 % 1008,5 hPa 0,0 l/m 0 min 0 min 0 W/m 9,7 km/h (2 Bft) 91,49 %
23.09.2023 02:32 11,3 C 10,6 C 7,2 C 96 % 1008,5 hPa 0,0 l/m 0 min 0 min 0 W/m 16,1 km/h (3 Bft) 95,74 %
23.09.2023 02:34 11,3 C 10,6 C 7,2 C 96 % 1008,6 hPa 0,0 l/m 0 min 0 min 0 W/m 3,2 km/h (1 Bft) 95,74 %
23.09.2023 02:36 11,3 C 10,6 C 7,2 C 96 % 1008,6 hPa 0,0 l/m 0 min 0 min 0 W/m 16,1 km/h (3 Bft) 93,62 %
23.09.2023 02:38 11,3 C 10,6 C 7,2 C 96 % 1008,6 hPa 0,0 l/m 0 min 0 min 0 W/m 6,4 km/h (2 Bft) 95,74 %
23.09.2023 02:40 11,3 C 10,6 C 7,2 C 96 % 1008,7 hPa 0,0 l/m 0 min 0 min 0 W/m 6,4 km/h (2 Bft) 95,65 %
23.09.2023 02:42 11,3 C 10,6 C 7,2 C 96 % 1008,8 hPa 0,0 l/m 0 min 0 min 0 W/m 9,7 km/h (2 Bft) 95,74 %
23.09.2023 02:44 11,3 C 10,6 C 7,2 C 96 % 1008,7 hPa 0,0 l/m 0 min 0 min 0 W/m 6,4 km/h (2 Bft) 93,62 %
23.09.2023 02:46 11,3 C 10,6 C 7,2 C 96 % 1008,8 hPa 0,0 l/m 0 min 0 min 0 W/m 6,4 km/h (2 Bft) 93,62 %
23.09.2023 02:48 11,3 C 10,6 C 7,2 C 96 % 1008,8 hPa 0,0 l/m 0 min 0 min 0 W/m 6,4 km/h (2 Bft) 95,74 %
23.09.2023 02:50 11,3 C 10,6 C 7,2 C 96 % 1008,8 hPa 0,0 l/m 0 min 0 min 0 W/m 6,4 km/h (2 Bft) 93,62 %
23.09.2023 02:52 11,3 C 10,6 C 7,2 C 96 % 1008,8 hPa 0,0 l/m 0 min 0 min 0 W/m 9,7 km/h (2 Bft) 95,65 %
23.09.2023 02:54 11,3 C 10,6 C 7,2 C 96 % 1008,8 hPa 0,0 l/m 0 min 0 min 0 W/m 9,7 km/h (2 Bft) 93,62 %
23.09.2023 02:56 11,3 C 10,6 C 7,2 C 96 % 1008,8 hPa 0,0 l/m 0 min 0 min 0 W/m 6,4 km/h (2 Bft) 95,74 %
23.09.2023 02:58 11,3 C 10,6 C 7,2 C 96 % 1008,9 hPa 0,0 l/m 0 min 0 min 0 W/m 19,3 km/h (3 Bft) 95,74 %
23.09.2023 03:00 11,3 C 10,6 C 7,2 C 96 % 1008,9 hPa 0,0 l/m 0 min 0 min 0 W/m 6,4 km/h (2 Bft) 95,74 %
23.09.2023 03:02 11,3 C 10,6 C 7,2 C 96 % 1008,9 hPa 0,0 l/m 0 min 0 min 0 W/m 6,4 km/h (2 Bft) 91,49 %
23.09.2023 03:04 11,3 C 10,6 C 7,2 C 96 % 1008,9 hPa 0,0 l/m 0 min 0 min 0 W/m 9,7 km/h (2 Bft) 95,56 %
23.09.2023 03:06 11,3 C 10,6 C 7,2 C 96 % 1008,9 hPa 0,0 l/m 0 min 0 min 0 W/m 6,4 km/h (2 Bft) 97,87 %
23.09.2023 03:08 11,3 C 10,6 C 7,2 C 96 % 1008,8 hPa 0,0 l/m 0 min 0 min 0 W/m 9,7 km/h (2 Bft) 95,74 %
23.09.2023 03:10 11,3 C 10,6 C 7,2 C 96 % 1008,9 hPa 0,0 l/m 0 min 0 min 0 W/m 9,7 km/h (2 Bft) 97,83 %
23.09.2023 03:12 11,3 C 10,6 C 7,2 C 96 % 1008,9 hPa 0,0 l/m 0 min 0 min 0 W/m 6,4 km/h (2 Bft) 93,62 %
23.09.2023 03:14 11,3 C 10,6 C 7,2 C 96 % 1008,9 hPa 0,0 l/m 0 min 0 min 0 W/m 6,4 km/h (2 Bft) 97,87 %
23.09.2023 03:16 11,3 C 10,6 C 7,2 C 96 % 1008,9 hPa 0,0 l/m 0 min 0 min 0 W/m 9,7 km/h (2 Bft) 95,74 %
23.09.2023 03:18 11,3 C 10,6 C 7,2 C 96 % 1009,0 hPa 0,0 l/m 0 min 0 min 0 W/m 0,0 km/h (0 Bft) 97,87 %
23.09.2023 03:20 11,3 C 10,6 C 7,2 C 96 % 1009,0 hPa 0,0 l/m 0 min 0 min 0 W/m 0,0 km/h (0 Bft) 97,87 %
23.09.2023 03:22 11,2 C 10,6 C 7,2 C 96 % 1009,0 hPa 0,0 l/m 0 min 0 min 0 W/m 6,4 km/h (2 Bft) 97,87 %
23.09.2023 03:24 11,2 C 10,6 C 7,2 C 96 % 1009,0 hPa 0,0 l/m 0 min 0 min 0 W/m 3,2 km/h (1 Bft) 100,00 %
23.09.2023 03:26 11,2 C 10,6 C 7,2 C 96 % 1009,0 hPa 0,0 l/m 0 min 0 min 0 W/m 6,4 km/h (2 Bft) 100,00 %
23.09.2023 03:28 11,2 C 10,6 C 7,2 C 96 % 1009,1 hPa 0,0 l/m 0 min 0 min 0 W/m 16,1 km/h (3 Bft) 100,00 %
23.09.2023 03:30 11,2 C 10,6 C 7,2 C 96 % 1009,1 hPa 0,0 l/m 0 min 0 min 0 W/m 6,4 km/h (2 Bft) 100,00 %
23.09.2023 03:32 11,2 C 10,6 C 7,2 C 96 % 1009,2 hPa 0,0 l/m 0 min 0 min 0 W/m 9,7 km/h (2 Bft) 97,83 %
23.09.2023 03:34 11,2 C 10,6 C 7,2 C 97 % 1009,2 hPa 0,0 l/m 0 min 0 min 0 W/m 9,7 km/h (2 Bft) 100,00 %
23.09.2023 03:36 11,2 C 10,6 C 7,2 C 97 % 1009,3 hPa 0,0 l/m 0 min 0 min 0 W/m 9,7 km/h (2 Bft) 97,87 %
23.09.2023 03:38 11,2 C 10,6 C 7,2 C 97 % 1009,3 hPa 0,0 l/m 0 min 0 min 0 W/m 9,7 km/h (2 Bft) 100,00 %
23.09.2023 03:40 11,2 C 10,6 C 7,2 C 97 % 1009,3 hPa 0,0 l/m 0 min 0 min 0 W/m 0,0 km/h (0 Bft) 100,00 %
23.09.2023 03:42 11,2 C 10,0 C 7,2 C 97 % 1009,3 hPa 0,0 l/m 0 min 0 min 0 W/m 6,4 km/h (2 Bft) 100,00 %
23.09.2023 03:44 11,2 C 10,0 C 7,2 C 97 % 1009,3 hPa 0,0 l/m 0 min 0 min 0 W/m 3,2 km/h (1 Bft) 97,87 %
23.09.2023 03:46 11,2 C 10,0 C 7,2 C 97 % 1009,4 hPa 0,0 l/m 0 min 0 min 0 W/m 6,4 km/h (2 Bft) 100,00 %
23.09.2023 03:48 11,2 C 10,6 C 7,2 C 97 % 1009,3 hPa 0,0 l/m 0 min 0 min 0 W/m 6,4 km/h (2 Bft) 100,00 %
23.09.2023 03:50 11,2 C 10,6 C 7,2 C 97 % 1009,4 hPa 0,0 l/m 0 min 0 min 0 W/m 9,7 km/h (2 Bft) 100,00 %
23.09.2023 03:52 11,1 C 10,0 C 7,2 C 96 % 1009,4 hPa 0,0 l/m 0 min 0 min 0 W/m 3,2 km/h (1 Bft) 100,00 %
23.09.2023 03:54 11,1 C 10,0 C 7,2 C 96 % 1009,4 hPa 0,0 l/m 0 min 0 min 0 W/m 0,0 km/h (0 Bft) 97,83 %
23.09.2023 03:56 11,1 C 10,0 C 7,2 C 96 % 1009,5 hPa 0,0 l/m 0 min 0 min 0 W/m 3,2 km/h (1 Bft) 95,74 %
23.09.2023 03:58 11,1 C 10,0 C 7,2 C 96 % 1009,5 hPa 0,0 l/m 0 min 0 min 0 W/m 6,4 km/h (2 Bft) 97,87 %
23.09.2023 04:00 11,1 C 10,0 C 7,2 C 96 % 1009,5 hPa 0,0 l/m 0 min 0 min 0 W/m 3,2 km/h (1 Bft) 98,04 %
23.09.2023 04:02 11,1 C 10,0 C 7,2 C 96 % 1009,5 hPa 0,0 l/m 0 min 0 min 0 W/m 6,4 km/h (2 Bft) 95,35 %
23.09.2023 04:04 11,1 C 10,0 C 7,2 C 96 % 1009,5 hPa 0,0 l/m 0 min 0 min 0 W/m 6,4 km/h (2 Bft) 97,78 %
23.09.2023 04:10 11,1 C 10,0 C 7,2 C 97 % 1009,7 hPa 0,0 l/m 0 min 0 min 0 W/m 6,4 km/h (2 Bft) 97,81 %
23.09.2023 04:12 11,1 C 10,0 C 7,2 C 97 % 1009,6 hPa 0,0 l/m 0 min 0 min 0 W/m 9,7 km/h (2 Bft) 93,62 %
23.09.2023 04:14 11,1 C 10,0 C 7,2 C 97 % 1009,6 hPa 0,0 l/m 0 min 0 min 0 W/m 12,9 km/h (3 Bft) 97,87 %
23.09.2023 04:16 11,1 C 10,0 C 7,2 C 97 % 1009,7 hPa 0,0 l/m 0 min 0 min 0 W/m 12,9 km/h (3 Bft) 97,87 %
23.09.2023 04:18 11,1 C 10,6 C 7,2 C 97 % 1009,7 hPa 0,0 l/m 0 min 0 min 0 W/m 12,9 km/h (3 Bft) 97,96 %
23.09.2023 04:20 11,1 C 10,6 C 7,2 C 97 % 1009,7 hPa 0,0 l/m 0 min 0 min 0 W/m 12,9 km/h (3 Bft) 97,87 %
23.09.2023 04:22 11,1 C 10,6 C 7,2 C 97 % 1009,7 hPa 0,0 l/m 0 min 0 min 0 W/m 16,1 km/h (3 Bft) 100,00 %
23.09.2023 04:24 11,1 C 10,6 C 7,2 C 97 % 1009,7 hPa 0,0 l/m 0 min 0 min 0 W/m 9,7 km/h (2 Bft) 100,00 %
23.09.2023 04:26 11,1 C 10,6 C 7,2 C 97 % 1009,7 hPa 0,0 l/m 0 min 0 min 0 W/m 6,4 km/h (2 Bft) 95,74 %
23.09.2023 04:28 11,1 C 10,6 C 7,2 C 97 % 1009,7 hPa 0,0 l/m 0 min 0 min 0 W/m 16,1 km/h (3 Bft) 100,00 %
23.09.2023 04:30 11,1 C 10,6 C 7,2 C 97 % 1009,7 hPa 0,0 l/m 0 min 0 min 0 W/m 9,7 km/h (2 Bft) 100,00 %
23.09.2023 04:32 11,1 C 10,6 C 7,2 C 97 % 1009,7 hPa 0,0 l/m 0 min 0 min 0 W/m 16,1 km/h (3 Bft) 100,00 %
23.09.2023 04:34 11,1 C 10,6 C 7,2 C 97 % 1009,8 hPa 0,0 l/m 0 min 0 min 0 W/m 16,1 km/h (3 Bft) 100,00 %
23.09.2023 04:36 11,1 C 10,6 C 7,2 C 97 % 1009,8 hPa 0,0 l/m 0 min 0 min 0 W/m 16,1 km/h (3 Bft) 100,00 %
23.09.2023 04:38 11,1 C 10,6 C 7,2 C 97 % 1009,8 hPa 0,0 l/m 0 min 0 min 0 W/m 9,7 km/h (2 Bft) 97,87 %
23.09.2023 04:40 11,1 C 10,6 C 7,2 C 97 % 1009,8 hPa 0,0 l/m 0 min 0 min 0 W/m 9,7 km/h (2 Bft) 100,00 %
23.09.2023 04:42 11,1 C 10,6 C 7,2 C 97 % 1009,8 hPa 0,0 l/m 0 min 0 min 0 W/m 12,9 km/h (3 Bft) 100,00 %
23.09.2023 04:44 11,1 C 10,6 C 7,2 C 97 % 1009,8 hPa 0,0 l/m 0 min 0 min 0 W/m 16,1 km/h (3 Bft) 100,00 %
23.09.2023 04:46 11,1 C 10,6 C 7,2 C 97 % 1009,9 hPa 0,0 l/m 0 min 0 min 0 W/m 19,3 km/h (3 Bft) 100,00 %
23.09.2023 04:48 11,1 C 10,6 C 7,2 C 97 % 1009,9 hPa 0,0 l/m 0 min 0 min 0 W/m 12,9 km/h (3 Bft) 95,74 %
23.09.2023 04:50 11,1 C 10,6 C 7,2 C 97 % 1009,9 hPa 0,0 l/m 0 min 0 min 0 W/m 16,1 km/h (3 Bft) 100,00 %
23.09.2023 04:52 11,1 C 10,6 C 7,2 C 97 % 1009,9 hPa 0,0 l/m 0 min 0 min 0 W/m 12,9 km/h (3 Bft) 100,00 %
23.09.2023 04:54 11,1 C 10,6 C 7,2 C 97 % 1009,9 hPa 0,0 l/m 0 min 0 min 0 W/m 16,1 km/h (3 Bft) 100,00 %
23.09.2023 04:56 11,1 C 10,6 C 7,2 C 97 % 1009,9 hPa 0,0 l/m 0 min 0 min 0 W/m 9,7 km/h (2 Bft) 100,00 %
23.09.2023 04:58 11,1 C 10,6 C 7,2 C 97 % 1009,9 hPa 0,0 l/m 0 min 0 min 0 W/m 16,1 km/h (3 Bft) 97,83 %
23.09.2023 05:00 11,1 C 10,6 C 7,2 C 97 % 1010,0 hPa 0,0 l/m 0 min 0 min 0 W/m 16,1 km/h (3 Bft) 95,74 %
23.09.2023 05:02 11,1 C 10,6 C 7,2 C 97 % 1010,0 hPa 0,0 l/m 0 min 0 min 0 W/m 9,7 km/h (2 Bft) 97,87 %
23.09.2023 05:04 11,1 C 10,6 C 7,2 C 97 % 1010,0 hPa 0,0 l/m 0 min 0 min 0 W/m 12,9 km/h (3 Bft) 97,67 %
23.09.2023 05:06 11,2 C 10,6 C 7,2 C 97 % 1010,1 hPa 0,0 l/m 0 min 0 min 0 W/m 12,9 km/h (3 Bft) 98,15 %
23.09.2023 05:08 11,2 C 10,6 C 7,2 C 97 % 1010,0 hPa 0,0 l/m 0 min 0 min 0 W/m 16,1 km/h (3 Bft) 97,83 %
23.09.2023 05:10 11,2 C 10,6 C 7,2 C 97 % 1010,0 hPa 0,0 l/m 0 min 0 min 0 W/m 12,9 km/h (3 Bft) 97,87 %
23.09.2023 05:12 11,2 C 10,6 C 7,2 C 97 % 1010,1 hPa 0,0 l/m 0 min 0 min 0 W/m 16,1 km/h (3 Bft) 97,87 %
23.09.2023 05:14 11,1 C 10,6 C 7,2 C 97 % 1010,1 hPa 0,0 l/m 0 min 0 min 0 W/m 16,1 km/h (3 Bft) 97,87 %
23.09.2023 05:16 11,2 C 10,6 C 7,2 C 97 % 1010,1 hPa 0,0 l/m 0 min 0 min 0 W/m 12,9 km/h (3 Bft) 97,87 %
23.09.2023 05:18 11,2 C 10,6 C 7,2 C 97 % 1010,0 hPa 0,0 l/m 0 min 0 min 0 W/m 19,3 km/h (3 Bft) 97,87 %
23.09.2023 05:20 11,2 C 10,6 C 7,2 C 97 % 1010,1 hPa 0,0 l/m 0 min 0 min 0 W/m 12,9 km/h (3 Bft) 97,87 %
23.09.2023 05:22 11,2 C 10,6 C 7,2 C 97 % 1010,1 hPa 0,0 l/m 0 min 0 min 0 W/m 19,3 km/h (3 Bft) 95,74 %
23.09.2023 05:24 11,2 C 10,6 C 7,2 C 97 % 1010,1 hPa 0,0 l/m 0 min 0 min 0 W/m 19,3 km/h (3 Bft) 95,74 %
23.09.2023 05:26 11,1 C 10,6 C 7,2 C 97 % 1010,0 hPa 0,0 l/m 0 min 0 min 0 W/m 16,1 km/h (3 Bft) 95,74 %
23.09.2023 05:28 11,2 C 10,6 C 7,2 C 97 % 1010,0 hPa 0,0 l/m 0 min 0 min 0 W/m 19,3 km/h (3 Bft) 93,62 %
23.09.2023 05:30 11,1 C 10,6 C 7,2 C 97 % 1010,1 hPa 0,0 l/m 0 min 0 min 0 W/m 16,1 km/h (3 Bft) 95,65 %
23.09.2023 05:32 11,1 C 10,6 C 7,2 C 97 % 1010,1 hPa 0,0 l/m 0 min 0 min 0 W/m 19,3 km/h (3 Bft) 95,74 %
23.09.2023 05:34 11,1 C 10,6 C 7,2 C 97 % 1010,2 hPa 0,0 l/m 0 min 0 min 0 W/m 12,9 km/h (3 Bft) 95,74 %
23.09.2023 05:36 11,1 C 10,6 C 7,2 C 97 % 1010,1 hPa 0,0 l/m 0 min 0 min 0 W/m 12,9 km/h (3 Bft) 95,74 %
23.09.2023 05:38 11,1 C 10,6 C 6,7 C 97 % 1010,1 hPa 0,0 l/m 0 min 0 min 0 W/m 16,1 km/h (3 Bft) 95,74 %
23.09.2023 05:40 11,1 C 10,6 C 6,7 C 97 % 1010,1 hPa 0,0 l/m 0 min 0 min 0 W/m 9,7 km/h (2 Bft) 93,62 %
23.09.2023 05:42 11,1 C 10,6 C 6,7 C 97 % 1010,1 hPa 0,0 l/m 0 min 0 min 0 W/m 12,9 km/h (3 Bft) 95,74 %
23.09.2023 05:44 11,1 C 10,6 C 7,2 C 97 % 1010,1 hPa 0,0 l/m 0 min 0 min 0 W/m 16,1 km/h (3 Bft) 93,62 %
23.09.2023 05:46 11,1 C 10,6 C 6,7 C 97 % 1010,2 hPa 0,0 l/m 0 min 0 min 0 W/m 12,9 km/h (3 Bft) 95,74 %
23.09.2023 05:48 11,1 C 10,6 C 6,7 C 97 % 1010,2 hPa 0,0 l/m 0 min 0 min 0 W/m 12,9 km/h (3 Bft) 97,87 %
23.09.2023 05:50 11,1 C 10,6 C 6,7 C 97 % 1010,2 hPa 0,0 l/m 0 min 0 min 0 W/m 22,5 km/h (4 Bft) 95,74 %
23.09.2023 05:52 11,1 C 10,6 C 6,7 C 96 % 1010,2 hPa 0,0 l/m 0 min 0 min 0 W/m 6,4 km/h (2 Bft) 95,65 %
23.09.2023 05:54 11,1 C 10,6 C 6,7 C 96 % 1010,2 hPa 0,0 l/m 0 min 0 min 0 W/m 16,1 km/h (3 Bft) 95,83 %
23.09.2023 05:56 11,1 C 10,6 C 6,7 C 96 % 1010,1 hPa 0,0 l/m 0 min 0 min 0 W/m 12,9 km/h (3 Bft) 93,62 %
23.09.2023 05:58 11,1 C 10,6 C 6,7 C 96 % 1010,1 hPa 0,0 l/m 0 min 0 min 0 W/m 16,1 km/h (3 Bft) 94,44 %
23.09.2023 06:00 11,1 C 10,6 C 6,7 C 96 % 1010,1 hPa 0,0 l/m 0 min 0 min 0 W/m 12,9 km/h (3 Bft) 95,74 %
23.09.2023 06:02 11,0 C 10,6 C 6,7 C 96 % 1010,2 hPa 0,0 l/m 0 min 0 min 0 W/m 12,9 km/h (3 Bft) 95,74 %
23.09.2023 06:04 11,0 C 10,6 C 6,7 C 96 % 1010,2 hPa 0,0 l/m 0 min 0 min 0 W/m 16,1 km/h (3 Bft) 95,74 %
23.09.2023 06:08 11,0 C 10,6 C 7,2 C 96 % 1010,1 hPa 0,0 l/m 0 min 0 min 0 W/m 16,1 km/h (3 Bft) 94,62 %
23.09.2023 06:10 11,0 C 10,6 C 7,2 C 96 % 1010,2 hPa 0,0 l/m 0 min 0 min 0 W/m 6,4 km/h (2 Bft) 98,28 %
23.09.2023 06:12 11,0 C 10,6 C 7,2 C 96 % 1010,1 hPa 0,0 l/m 0 min 0 min 0 W/m 9,7 km/h (2 Bft) 97,22 %
23.09.2023 06:16 11,0 C 10,6 C 7,2 C 96 % 1010,2 hPa 0,0 l/m 0 min 0 min 0 W/m 6,4 km/h (2 Bft) 97,85 %
23.09.2023 06:18 11,0 C 10,6 C 7,2 C 96 % 1010,2 hPa 0,0 l/m 0 min 0 min 0 W/m 3,2 km/h (1 Bft) 100,00 %
23.09.2023 06:20 10,9 C 10,6 C 7,2 C 96 % 1010,2 hPa 0,0 l/m 0 min 0 min 0 W/m 6,4 km/h (2 Bft) 97,87 %
23.09.2023 06:22 11,0 C 10,6 C 7,2 C 96 % 1010,3 hPa 0,0 l/m 0 min 0 min 0 W/m 3,2 km/h (1 Bft) 100,00 %
23.09.2023 06:24 11,0 C 10,6 C 7,2 C 96 % 1010,3 hPa 0,0 l/m 0 min 0 min 0 W/m 6,4 km/h (2 Bft) 100,00 %
23.09.2023 06:26 11,0 C 10,6 C 7,2 C 96 % 1010,3 hPa 0,0 l/m 0 min 0 min 0 W/m 6,4 km/h (2 Bft) 100,00 %
23.09.2023 06:28 11,0 C 10,6 C 7,2 C 96 % 1010,4 hPa 0,0 l/m 0 min 0 min 0 W/m 6,4 km/h (2 Bft) 95,74 %
23.09.2023 06:30 11,0 C 10,0 C 7,2 C 96 % 1010,4 hPa 0,0 l/m 0 min 0 min 0 W/m 3,2 km/h (1 Bft) 100,00 %
23.09.2023 06:32 11,0 C 10,0 C 7,2 C 96 % 1010,4 hPa 0,0 l/m 0 min 0 min 0 W/m 3,2 km/h (1 Bft) 100,00 %
23.09.2023 06:34 10,9 C 10,0 C 7,2 C 96 % 1010,5 hPa 0,0 l/m 0 min 0 min 0 W/m 16,1 km/h (3 Bft) 97,87 %
23.09.2023 06:36 10,9 C 10,0 C 7,2 C 96 % 1010,5 hPa 0,0 l/m 0 min 0 min 0 W/m 12,9 km/h (3 Bft) 100,00 %
23.09.2023 06:38 10,9 C 10,0 C 7,2 C 96 % 1010,5 hPa 0,0 l/m 0 min 0 min 0 W/m 12,9 km/h (3 Bft) 100,00 %
23.09.2023 06:40 10,9 C 10,6 C 7,2 C 96 % 1010,5 hPa 0,0 l/m 0 min 0 min 0 W/m 19,3 km/h (3 Bft) 97,87 %
23.09.2023 06:42 10,9 C 10,0 C 7,2 C 96 % 1010,5 hPa 0,0 l/m 0 min 0 min 0 W/m 12,9 km/h (3 Bft) 97,96 %
23.09.2023 06:44 10,9 C 10,0 C 7,2 C 96 % 1010,5 hPa 0,0 l/m 0 min 0 min 0 W/m 16,1 km/h (3 Bft) 100,00 %
23.09.2023 06:46 10,9 C 10,0 C 7,2 C 96 % 1010,5 hPa 0,0 l/m 0 min 0 min 0 W/m 12,9 km/h (3 Bft) 100,00 %
23.09.2023 06:48 10,9 C 10,0 C 7,2 C 96 % 1010,5 hPa 0,0 l/m 0 min 0 min 0 W/m 16,1 km/h (3 Bft) 97,87 %
23.09.2023 06:50 10,9 C 10,0 C 7,2 C 96 % 1010,6 hPa 0,0 l/m 0 min 0 min 0 W/m 12,9 km/h (3 Bft) 100,00 %
23.09.2023 06:52 10,9 C 10,6 C 7,2 C 96 % 1010,6 hPa 0,0 l/m 0 min 0 min 0 W/m 12,9 km/h (3 Bft) 100,00 %
23.09.2023 06:54 10,9 C 10,0 C 7,2 C 96 % 1010,6 hPa 0,0 l/m 0 min 0 min 0 W/m 12,9 km/h (3 Bft) 100,00 %
23.09.2023 06:56 10,9 C 10,0 C 7,2 C 96 % 1010,7 hPa 0,0 l/m 0 min 0 min 0 W/m 19,3 km/h (3 Bft) 100,00 %
23.09.2023 06:58 10,9 C 10,0 C 7,2 C 96 % 1010,7 hPa 0,0 l/m 0 min 0 min 0 W/m 12,9 km/h (3 Bft) 100,00 %
23.09.2023 07:00 10,9 C 10,0 C 7,2 C 96 % 1010,7 hPa 0,0 l/m 0 min 0 min 0 W/m 16,1 km/h (3 Bft) 100,00 %
23.09.2023 07:02 10,9 C 10,0 C 7,2 C 96 % 1010,7 hPa 0,0 l/m 0 min 0 min 0 W/m 19,3 km/h (3 Bft) 100,00 %
23.09.2023 07:04 10,9 C 10,0 C 7,2 C 96 % 1010,8 hPa 0,0 l/m 0 min 0 min 0 W/m 12,9 km/h (3 Bft) 100,00 %
23.09.2023 07:10 10,9 C 10,0 C 7,2 C 96 % 1010,9 hPa 0,0 l/m 0 min 0 min 0 W/m 16,1 km/h (3 Bft) 99,29 %
23.09.2023 07:12 10,9 C 10,0 C 7,2 C 96 % 1010,9 hPa 0,0 l/m 0 min 0 min 0 W/m 16,1 km/h (3 Bft) 100,00 %
23.09.2023 07:14 10,9 C 10,0 C 7,2 C 96 % 1010,9 hPa 0,0 l/m 0 min 0 min 0 W/m 19,3 km/h (3 Bft) 100,00 %
23.09.2023 07:16 10,9 C 10,0 C 7,2 C 96 % 1010,9 hPa 0,0 l/m 0 min 0 min 0 W/m 12,9 km/h (3 Bft) 97,96 %
23.09.2023 07:18 10,9 C 10,0 C 7,2 C 96 % 1011,0 hPa 0,0 l/m 0 min 0 min 0 W/m 16,1 km/h (3 Bft) 100,00 %
23.09.2023 07:20 10,9 C 10,0 C 7,2 C 96 % 1011,0 hPa 0,0 l/m 0 min 0 min 0 W/m 16,1 km/h (3 Bft) 97,87 %
23.09.2023 07:22 10,9 C 10,0 C 7,2 C 96 % 1011,1 hPa 0,0 l/m 0 min 0 min 0 W/m 12,9 km/h (3 Bft) 97,87 %
23.09.2023 07:24 10,9 C 10,0 C 7,2 C 96 % 1011,1 hPa 0,0 l/m 0 min 0 min 0 W/m 9,7 km/h (2 Bft) 93,62 %
23.09.2023 07:26 10,9 C 10,0 C 7,2 C 96 % 1011,2 hPa 0,0 l/m 0 min 0 min 4 W/m 16,1 km/h (3 Bft) 93,62 %
23.09.2023 07:28 10,9 C 10,0 C 7,2 C 96 % 1011,2 hPa 0,0 l/m 0 min 0 min 5 W/m 12,9 km/h (3 Bft) 95,35 %
23.09.2023 07:30 10,9 C 10,0 C 7,2 C 96 % 1011,3 hPa 0,0 l/m 0 min 0 min 5 W/m 12,9 km/h (3 Bft) 96,00 %
23.09.2023 07:32 10,9 C 10,0 C 7,2 C 96 % 1011,3 hPa 0,0 l/m 0 min 0 min 6 W/m 19,3 km/h (3 Bft) 95,74 %
23.09.2023 07:34 10,9 C 10,0 C 7,2 C 96 % 1011,4 hPa 0,0 l/m 0 min 0 min 7 W/m 16,1 km/h (3 Bft) 95,74 %
23.09.2023 07:36 10,9 C 10,0 C 7,2 C 96 % 1011,4 hPa 0,0 l/m 0 min 0 min 7 W/m 16,1 km/h (3 Bft) 95,74 %
23.09.2023 07:38 10,9 C 10,6 C 7,2 C 96 % 1011,4 hPa 0,0 l/m 0 min 0 min 9 W/m 16,1 km/h (3 Bft) 93,62 %
23.09.2023 07:40 10,9 C 10,0 C 7,2 C 96 % 1011,4 hPa 0,0 l/m 0 min 0 min 9 W/m 16,1 km/h (3 Bft) 95,74 %
23.09.2023 07:42 10,9 C 10,6 C 7,2 C 96 % 1011,5 hPa 0,0 l/m 0 min 0 min 9 W/m 19,3 km/h (3 Bft) 95,65 %
23.09.2023 07:44 10,9 C 10,6 C 7,2 C 96 % 1011,5 hPa 0,0 l/m 0 min 0 min 11 W/m 12,9 km/h (3 Bft) 93,62 %
23.09.2023 07:46 10,9 C 10,6 C 7,2 C 96 % 1011,5 hPa 0,0 l/m 0 min 0 min 11 W/m 25,7 km/h (4 Bft) 93,62 %
23.09.2023 07:48 10,9 C 10,6 C 7,2 C 96 % 1011,6 hPa 0,0 l/m 0 min 0 min 12 W/m 12,9 km/h (3 Bft) 93,62 %
23.09.2023 07:50 10,9 C 10,6 C 7,2 C 96 % 1011,7 hPa 0,0 l/m 0 min 0 min 12 W/m 12,9 km/h (3 Bft) 95,74 %
23.09.2023 07:52 10,9 C 10,6 C 7,2 C 96 % 1011,7 hPa 0,0 l/m 0 min 0 min 13 W/m 12,9 km/h (3 Bft) 95,74 %
23.09.2023 07:54 10,9 C 10,6 C 7,2 C 96 % 1011,8 hPa 0,0 l/m 0 min 0 min 14 W/m 19,3 km/h (3 Bft) 97,87 %
23.09.2023 07:56 10,9 C 10,6 C 7,2 C 96 % 1011,8 hPa 0,0 l/m 0 min 0 min 14 W/m 9,7 km/h (2 Bft) 97,87 %
23.09.2023 07:58 10,9 C 10,6 C 7,2 C 96 % 1011,8 hPa 0,0 l/m 0 min 0 min 16 W/m 12,9 km/h (3 Bft) 95,74 %
23.09.2023 08:00 10,9 C 10,6 C 7,2 C 96 % 1011,9 hPa 0,0 l/m 0 min 0 min 16 W/m 12,9 km/h (3 Bft) 100,00 %
23.09.2023 08:02 10,9 C 10,6 C 7,2 C 96 % 1011,9 hPa 0,0 l/m 0 min 0 min 18 W/m 25,7 km/h (4 Bft) 97,67 %
23.09.2023 08:04 10,9 C 10,6 C 7,2 C 96 % 1011,9 hPa 0,0 l/m 0 min 0 min 18 W/m 16,1 km/h (3 Bft) 100,00 %
23.09.2023 08:10 10,9 C 10,6 C 7,2 C 96 % 1012,1 hPa 0,0 l/m 0 min 0 min 19 W/m 16,1 km/h (3 Bft) 98,58 %
23.09.2023 08:12 10,9 C 10,6 C 7,2 C 96 % 1012,1 hPa 0,0 l/m 0 min 0 min 21 W/m 16,1 km/h (3 Bft) 100,00 %
23.09.2023 08:14 10,9 C 10,6 C 7,2 C 96 % 1012,1 hPa 0,0 l/m 0 min 0 min 21 W/m 9,7 km/h (2 Bft) 100,00 %
23.09.2023 08:16 10,9 C 10,6 C 7,2 C 96 % 1012,1 hPa 0,0 l/m 0 min 0 min 22 W/m 12,9 km/h (3 Bft) 100,00 %
23.09.2023 08:18 10,9 C 10,6 C 7,2 C 96 % 1012,2 hPa 0,0 l/m 0 min 0 min 23 W/m 19,3 km/h (3 Bft) 100,00 %
23.09.2023 08:20 11,0 C 10,6 C 7,2 C 96 % 1012,3 hPa 0,0 l/m 0 min 0 min 23 W/m 12,9 km/h (3 Bft) 97,87 %
23.09.2023 08:22 11,0 C 10,6 C 7,8 C 96 % 1012,3 hPa 0,0 l/m 0 min 0 min 25 W/m 19,3 km/h (3 Bft) 97,87 %
23.09.2023 08:24 11,0 C 10,6 C 7,8 C 96 % 1012,3 hPa 0,0 l/m 0 min 0 min 25 W/m 16,1 km/h (3 Bft) 100,00 %
23.09.2023 08:26 11,1 C 10,6 C 7,8 C 96 % 1012,4 hPa 0,0 l/m 0 min 0 min 25 W/m 22,5 km/h (4 Bft) 100,00 %
23.09.2023 08:28 11,1 C 10,6 C 7,8 C 96 % 1012,5 hPa 0,0 l/m 0 min 0 min 26 W/m 16,1 km/h (3 Bft) 100,00 %
23.09.2023 08:30 11,1 C 10,6 C 7,8 C 96 % 1012,5 hPa 0,0 l/m 0 min 0 min 26 W/m 19,3 km/h (3 Bft) 100,00 %
23.09.2023 08:32 11,1 C 10,6 C 7,8 C 96 % 1012,5 hPa 0,0 l/m 0 min 0 min 26 W/m 25,7 km/h (4 Bft) 97,87 %
23.09.2023 08:34 11,1 C 10,6 C 7,8 C 96 % 1012,6 hPa 0,0 l/m 0 min 0 min 27 W/m 19,3 km/h (3 Bft) 97,87 %
23.09.2023 08:36 11,2 C 10,6 C 7,8 C 96 % 1012,6 hPa 0,0 l/m 0 min 0 min 28 W/m 22,5 km/h (4 Bft) 97,83 %
23.09.2023 08:38 11,2 C 10,6 C 7,8 C 96 % 1012,7 hPa 0,0 l/m 0 min 0 min 29 W/m 12,9 km/h (3 Bft) 97,87 %
23.09.2023 08:40 11,2 C 10,6 C 7,8 C 96 % 1012,7 hPa 0,0 l/m 0 min 0 min 28 W/m 9,7 km/h (2 Bft) 53,33 %
23.09.2023 08:42 11,2 C 11,1 C 7,8 C 96 % 1012,7 hPa 0,0 l/m 0 min 0 min 29 W/m 6,4 km/h (2 Bft) 93,62 %
23.09.2023 08:44 11,2 C 11,1 C 7,8 C 96 % 1012,7 hPa 0,0 l/m 0 min 0 min 30 W/m 22,5 km/h (4 Bft) 97,87 %
23.09.2023 08:46 11,3 C 11,1 C 7,8 C 96 % 1012,7 hPa 0,0 l/m 0 min 0 min 30 W/m 12,9 km/h (3 Bft) 97,87 %
23.09.2023 08:48 11,3 C 11,1 C 7,8 C 96 % 1012,7 hPa 0,0 l/m 0 min 0 min 30 W/m 12,9 km/h (3 Bft) 97,87 %
23.09.2023 08:50 11,3 C 11,1 C 7,8 C 96 % 1012,8 hPa 0,0 l/m 0 min 0 min 31 W/m 12,9 km/h (3 Bft) 95,74 %
23.09.2023 08:52 11,3 C 11,1 C 7,8 C 96 % 1012,7 hPa 0,0 l/m 0 min 0 min 33 W/m 19,3 km/h (3 Bft) 97,87 %
23.09.2023 08:54 11,3 C 11,1 C 7,8 C 96 % 1012,8 hPa 0,0 l/m 0 min 0 min 32 W/m 12,9 km/h (3 Bft) 98,11 %
23.09.2023 08:56 11,4 C 11,1 C 7,8 C 96 % 1012,9 hPa 0,0 l/m 0 min 0 min 33 W/m 19,3 km/h (3 Bft) 93,62 %
23.09.2023 08:58 11,4 C 11,1 C 7,8 C 96 % 1012,9 hPa 0,0 l/m 0 min 0 min 33 W/m 16,1 km/h (3 Bft) 95,74 %
23.09.2023 09:00 11,4 C 11,1 C 7,8 C 96 % 1012,9 hPa 0,0 l/m 0 min 0 min 35 W/m 16,1 km/h (3 Bft) 100,00 %
23.09.2023 09:02 11,5 C 11,1 C 7,8 C 96 % 1013,0 hPa 0,0 l/m 0 min 0 min 35 W/m 12,9 km/h (3 Bft) 93,62 %
23.09.2023 09:04 11,5 C 11,1 C 7,8 C 96 % 1013,0 hPa 0,0 l/m 0 min 0 min 36 W/m 16,1 km/h (3 Bft) 97,83 %
23.09.2023 09:06 11,6 C 11,1 C 7,8 C 96 % 1013,1 hPa 0,0 l/m 0 min 0 min 40 W/m 19,3 km/h (3 Bft) 97,96 %
23.09.2023 09:08 11,6 C 11,1 C 8,3 C 96 % 1013,2 hPa 0,0 l/m 0 min 0 min 37 W/m 16,1 km/h (3 Bft) 97,87 %
23.09.2023 09:10 11,6 C 11,7 C 8,3 C 96 % 1013,2 hPa 0,0 l/m 0 min 0 min 37 W/m 12,9 km/h (3 Bft) 97,14 %
23.09.2023 09:12 11,7 C 11,7 C 8,3 C 96 % 1013,2 hPa 0,0 l/m 0 min 0 min 38 W/m 25,7 km/h (4 Bft) 95,74 %
23.09.2023 09:14 11,7 C 11,7 C 8,3 C 96 % 1013,3 hPa 0,0 l/m 0 min 0 min 40 W/m 25,7 km/h (4 Bft) 91,30 %
23.09.2023 09:16 11,8 C 11,7 C 8,3 C 96 % 1013,2 hPa 0,0 l/m 0 min 0 min 39 W/m 22,5 km/h (4 Bft) 93,62 %
23.09.2023 09:18 11,8 C 11,7 C 8,3 C 96 % 1013,2 hPa 0,0 l/m 0 min 0 min 39 W/m 19,3 km/h (3 Bft) 91,49 %
23.09.2023 09:20 11,8 C 11,7 C 8,3 C 96 % 1013,3 hPa 0,0 l/m 0 min 0 min 40 W/m 19,3 km/h (3 Bft) 95,74 %
23.09.2023 09:22 11,9 C 11,7 C 8,3 C 95 % 1013,3 hPa 0,0 l/m 0 min 0 min 42 W/m 16,1 km/h (3 Bft) 95,74 %
23.09.2023 09:24 11,9 C 11,7 C 8,3 C 95 % 1013,4 hPa 0,0 l/m 0 min 0 min 43 W/m 16,1 km/h (3 Bft) 95,74 %
23.09.2023 09:26 11,9 C 11,7 C 8,3 C 95 % 1013,4 hPa 0,0 l/m 0 min 0 min 45 W/m 32,2 km/h (5 Bft) 95,74 %
23.09.2023 09:28 12,0 C 11,7 C 8,3 C 95 % 1013,4 hPa 0,0 l/m 0 min 0 min 45 W/m 16,1 km/h (3 Bft) 93,62 %
23.09.2023 09:30 12,0 C 11,7 C 8,3 C 95 % 1013,4 hPa 0,0 l/m 0 min 0 min 43 W/m 16,1 km/h (3 Bft) 95,74 %
23.09.2023 09:32 12,1 C 11,7 C 8,3 C 95 % 1013,4 hPa 0,0 l/m 0 min 0 min 43 W/m 29,0 km/h (5 Bft) 97,87 %
23.09.2023 09:34 12,1 C 12,2 C 8,3 C 95 % 1013,5 hPa 0,0 l/m 0 min 0 min 44 W/m 19,3 km/h (3 Bft) 95,65 %
23.09.2023 09:36 12,2 C 12,2 C 8,9 C 95 % 1013,5 hPa 0,0 l/m 0 min 0 min 48 W/m 12,9 km/h (3 Bft) 95,74 %
23.09.2023 09:38 12,2 C 12,2 C 8,9 C 95 % 1013,6 hPa 0,0 l/m 0 min 0 min 48 W/m 16,1 km/h (3 Bft) 97,87 %
23.09.2023 09:40 12,3 C 12,2 C 8,9 C 95 % 1013,6 hPa 0,0 l/m 0 min 0 min 52 W/m 16,1 km/h (3 Bft) 97,87 %
23.09.2023 09:42 12,3 C 12,2 C 8,9 C 95 % 1013,6 hPa 0,0 l/m 0 min 0 min 77 W/m 16,1 km/h (3 Bft) 97,87 %
23.09.2023 09:44 12,3 C 12,2 C 8,9 C 95 % 1013,7 hPa 0,0 l/m 0 min 0 min 60 W/m 22,5 km/h (4 Bft) 95,74 %
23.09.2023 09:46 12,4 C 12,2 C 8,9 C 94 % 1013,8 hPa 0,0 l/m 0 min 0 min 82 W/m 16,1 km/h (3 Bft) 95,74 %
23.09.2023 09:48 12,4 C 12,2 C 8,9 C 94 % 1013,8 hPa 0,0 l/m 0 min 0 min 77 W/m 16,1 km/h (3 Bft) 97,87 %
23.09.2023 09:50 12,5 C 12,2 C 8,9 C 94 % 1013,9 hPa 0,0 l/m 0 min 0 min 118 W/m 25,7 km/h (4 Bft) 97,87 %
23.09.2023 09:52 12,6 C 12,8 C 8,9 C 94 % 1013,9 hPa 0,0 l/m 2 min 0 min 255 W/m 12,9 km/h (3 Bft) 97,83 %
23.09.2023 09:54 12,6 C 12,8 C 8,9 C 94 % 1014,0 hPa 0,0 l/m 0 min 0 min 126 W/m 19,3 km/h (3 Bft) 97,87 %
23.09.2023 09:56 12,7 C 12,8 C 8,9 C 94 % 1014,0 hPa 0,0 l/m 0 min 0 min 160 W/m 22,5 km/h (4 Bft) 97,87 %
23.09.2023 09:58 12,7 C 12,8 C 8,9 C 93 % 1014,0 hPa 0,0 l/m 0 min 0 min 152 W/m 35,4 km/h (5 Bft) 97,87 %
23.09.2023 10:00 12,7 C 12,8 C 8,9 C 93 % 1014,0 hPa 0,0 l/m 2 min 0 min 208 W/m 16,1 km/h (3 Bft) 97,87 %
23.09.2023 10:02 12,8 C 12,8 C 9,4 C 93 % 1014,0 hPa 0,0 l/m 2 min 0 min 203 W/m 6,4 km/h (2 Bft) 93,62 %
23.09.2023 10:04 12,8 C 12,8 C 9,4 C 93 % 1014,0 hPa 0,0 l/m 0 min 0 min 175 W/m 12,9 km/h (3 Bft) 95,74 %
23.09.2023 10:06 12,9 C 12,8 C 9,4 C 93 % 1014,1 hPa 0,0 l/m 0 min 0 min 87 W/m 16,1 km/h (3 Bft) 95,83 %
23.09.2023 10:08 12,9 C 12,8 C 9,4 C 93 % 1014,2 hPa 0,0 l/m 0 min 0 min 100 W/m 25,7 km/h (4 Bft) 97,87 %
23.09.2023 10:10 12,9 C 12,8 C 9,4 C 92 % 1014,1 hPa 0,0 l/m 0 min 0 min 65 W/m 16,1 km/h (3 Bft) 95,74 %
23.09.2023 10:12 12,9 C 12,8 C 9,4 C 92 % 1014,1 hPa 0,0 l/m 0 min 0 min 157 W/m 12,9 km/h (3 Bft) 95,74 %
23.09.2023 10:14 12,9 C 12,8 C 9,4 C 92 % 1014,1 hPa 0,0 l/m 0 min 0 min 102 W/m 12,9 km/h (3 Bft) 97,87 %
23.09.2023 10:16 12,9 C 12,8 C 9,4 C 92 % 1014,2 hPa 0,0 l/m 0 min 0 min 67 W/m 9,7 km/h (2 Bft) 97,87 %
23.09.2023 10:18 12,9 C 12,8 C 9,4 C 92 % 1014,2 hPa 0,0 l/m 0 min 0 min 113 W/m 12,9 km/h (3 Bft) 95,74 %
23.09.2023 10:20 12,9 C 12,8 C 9,4 C 92 % 1014,2 hPa 0,0 l/m 0 min 0 min 81 W/m 19,3 km/h (3 Bft) 97,83 %
23.09.2023 10:22 13,0 C 12,8 C 9,4 C 92 % 1014,2 hPa 0,0 l/m 0 min 0 min 81 W/m 16,1 km/h (3 Bft) 97,87 %
23.09.2023 10:24 13,1 C 13,3 C 9,4 C 92 % 1014,3 hPa 0,0 l/m 0 min 0 min 90 W/m 12,9 km/h (3 Bft) 97,87 %
23.09.2023 10:26 13,1 C 13,3 C 9,4 C 92 % 1014,2 hPa 0,0 l/m 0 min 0 min 105 W/m 19,3 km/h (3 Bft) 97,87 %
23.09.2023 10:28 13,2 C 13,3 C 9,4 C 92 % 1014,3 hPa 0,0 l/m 0 min 0 min 118 W/m 12,9 km/h (3 Bft) 97,87 %
23.09.2023 10:30 13,2 C 13,3 C 10,0 C 92 % 1014,3 hPa 0,0 l/m 0 min 0 min 116 W/m 22,5 km/h (4 Bft) 100,00 %
23.09.2023 10:32 13,3 C 13,9 C 10,0 C 92 % 1014,3 hPa 0,0 l/m 0 min 0 min 102 W/m 12,9 km/h (3 Bft) 100,00 %
23.09.2023 10:34 13,3 C 13,9 C 10,0 C 92 % 1014,4 hPa 0,0 l/m 0 min 0 min 198 W/m 12,9 km/h (3 Bft) 100,00 %
23.09.2023 10:36 13,4 C 13,9 C 10,0 C 92 % 1014,3 hPa 0,0 l/m 0 min 0 min 123 W/m 12,9 km/h (3 Bft) 100,00 %
23.09.2023 10:38 13,6 C 13,9 C 10,0 C 92 % 1014,4 hPa 0,0 l/m 0 min 0 min 81 W/m 9,7 km/h (2 Bft) 100,00 %
23.09.2023 10:40 13,6 C 13,9 C 10,0 C 91 % 1014,5 hPa 0,0 l/m 0 min 0 min 79 W/m 19,3 km/h (3 Bft) 100,00 %
23.09.2023 10:42 13,6 C 13,3 C 10,0 C 91 % 1014,5 hPa 0,0 l/m 0 min 0 min 99 W/m 12,9 km/h (3 Bft) 100,00 %
23.09.2023 10:44 13,6 C 13,9 C 10,0 C 91 % 1014,5 hPa 0,0 l/m 0 min 0 min 140 W/m 9,7 km/h (2 Bft) 100,00 %
23.09.2023 10:46 13,7 C 13,9 C 10,0 C 91 % 1014,6 hPa 0,0 l/m 0 min 0 min 89 W/m 12,9 km/h (3 Bft) 100,00 %
23.09.2023 10:48 13,7 C 13,9 C 10,0 C 91 % 1014,5 hPa 0,0 l/m 2 min 0 min 365 W/m 12,9 km/h (3 Bft) 97,87 %
23.09.2023 10:50 13,8 C 13,9 C 10,0 C 90 % 1014,6 hPa 0,0 l/m 0 min 0 min 172 W/m 12,9 km/h (3 Bft) 97,87 %
23.09.2023 10:52 13,8 C 13,9 C 10,0 C 90 % 1014,7 hPa 0,0 l/m 0 min 0 min 95 W/m 16,1 km/h (3 Bft) 100,00 %
23.09.2023 10:54 13,8 C 13,9 C 10,0 C 90 % 1014,8 hPa 0,0 l/m 0 min 0 min 104 W/m 19,3 km/h (3 Bft) 95,74 %
23.09.2023 10:56 13,9 C 15,0 C 10,6 C 90 % 1014,7 hPa 0,0 l/m 0 min 0 min 151 W/m 16,1 km/h (3 Bft) 100,00 %
23.09.2023 10:58 13,9 C 14,4 C 10,0 C 90 % 1014,7 hPa 0,0 l/m 0 min 0 min 93 W/m 12,9 km/h (3 Bft) 100,00 %
23.09.2023 11:00 13,9 C 14,4 C 10,0 C 89 % 1014,7 hPa 0,0 l/m 0 min 0 min 96 W/m 16,1 km/h (3 Bft) 95,74 %
23.09.2023 11:02 13,9 C 14,4 C 10,0 C 89 % 1014,7 hPa 0,0 l/m 0 min 0 min 115 W/m 9,7 km/h (2 Bft) 100,00 %
23.09.2023 11:04 14,1 C 14,4 C 10,6 C 89 % 1014,7 hPa 0,0 l/m 0 min 0 min 105 W/m 12,9 km/h (3 Bft) 95,56 %
23.09.2023 11:06 14,1 C 14,4 C 10,6 C 89 % 1014,7 hPa 0,0 l/m 0 min 0 min 122 W/m 19,3 km/h (3 Bft) 97,87 %
23.09.2023 11:08 14,1 C 13,9 C 10,6 C 89 % 1014,7 hPa 0,0 l/m 0 min 0 min 91 W/m 16,1 km/h (3 Bft) 95,74 %
23.09.2023 11:10 14,1 C 13,9 C 10,6 C 88 % 1014,8 hPa 0,0 l/m 0 min 0 min 91 W/m 22,5 km/h (4 Bft) 97,87 %
23.09.2023 11:12 14,1 C 14,4 C 10,6 C 88 % 1014,8 hPa 0,0 l/m 0 min 0 min 152 W/m 16,1 km/h (3 Bft) 97,87 %
23.09.2023 11:14 14,1 C 15,6 C 10,6 C 89 % 1014,8 hPa 0,0 l/m 0 min 0 min 184 W/m 19,3 km/h (3 Bft) 97,87 %
23.09.2023 11:16 14,2 C 16,1 C 10,6 C 89 % 1014,8 hPa 0,0 l/m 0 min 0 min 170 W/m 19,3 km/h (3 Bft) 97,87 %
23.09.2023 11:18 14,3 C 16,7 C 11,1 C 88 % 1014,8 hPa 0,0 l/m 0 min 0 min 154 W/m 22,5 km/h (4 Bft) 97,83 %
23.09.2023 11:20 14,3 C 16,1 C 11,1 C 88 % 1014,9 hPa 0,0 l/m 0 min 0 min 202 W/m 22,5 km/h (4 Bft) 97,87 %
23.09.2023 11:22 14,3 C 16,1 C 11,7 C 88 % 1014,9 hPa 0,0 l/m 0 min 0 min 202 W/m 25,7 km/h (4 Bft) 95,74 %
23.09.2023 11:24 14,5 C 16,1 C 11,7 C 88 % 1014,9 hPa 0,0 l/m 0 min 0 min 202 W/m 22,5 km/h (4 Bft) 97,87 %
23.09.2023 11:26 14,6 C 16,1 C 11,7 C 87 % 1015,0 hPa 0,0 l/m 0 min 0 min 258 W/m 16,1 km/h (3 Bft) 95,74 %
23.09.2023 11:28 14,7 C 16,1 C 11,7 C 87 % 1015,0 hPa 0,0 l/m 0 min 0 min 231 W/m 16,1 km/h (3 Bft) 97,87 %
23.09.2023 11:30 14,8 C 16,7 C 12,2 C 87 % 1015,0 hPa 0,0 l/m 0 min 0 min 244 W/m 12,9 km/h (3 Bft) 95,74 %
23.09.2023 11:32 14,9 C 17,8 C 12,8 C 87 % 1015,0 hPa 0,0 l/m 2 min 0 min 372 W/m 22,5 km/h (4 Bft) 95,74 %
23.09.2023 11:34 15,0 C 17,8 C 12,8 C 86 % 1015,0 hPa 0,0 l/m 2 min 0 min 649 W/m 19,3 km/h (3 Bft) 93,62 %
23.09.2023 11:36 15,1 C 17,8 C 12,8 C 86 % 1015,0 hPa 0,0 l/m 2 min 0 min 603 W/m 12,9 km/h (3 Bft) 95,74 %
23.09.2023 11:38 15,1 C 18,3 C 13,3 C 86 % 1015,0 hPa 0,0 l/m 2 min 0 min 483 W/m 25,7 km/h (4 Bft) 95,65 %
23.09.2023 11:40 15,2 C 17,8 C 12,8 C 85 % 1015,1 hPa 0,0 l/m 2 min 0 min 537 W/m 19,3 km/h (3 Bft) 97,87 %
23.09.2023 11:42 15,1 C 17,2 C 12,8 C 85 % 1015,1 hPa 0,0 l/m 0 min 0 min 274 W/m 12,9 km/h (3 Bft) 100,00 %
23.09.2023 11:44 15,1 C 17,2 C 12,8 C 84 % 1015,1 hPa 0,0 l/m 2 min 0 min 472 W/m 19,3 km/h (3 Bft) 97,87 %
23.09.2023 11:46 15,1 C 18,3 C 12,8 C 84 % 1015,2 hPa 0,0 l/m 2 min 0 min 559 W/m 19,3 km/h (3 Bft) 97,87 %
23.09.2023 11:48 15,0 C 18,3 C 12,8 C 84 % 1015,1 hPa 0,0 l/m 2 min 0 min 578 W/m 12,9 km/h (3 Bft) 97,87 %
23.09.2023 11:50 15,1 C 18,3 C 13,3 C 84 % 1015,3 hPa 0,0 l/m 2 min 0 min 584 W/m 22,5 km/h (4 Bft) 97,87 %
23.09.2023 11:52 15,1 C 18,3 C 13,9 C 84 % 1015,3 hPa 0,0 l/m 2 min 0 min 582 W/m 22,5 km/h (4 Bft) 95,74 %
23.09.2023 11:54 15,2 C 18,3 C 13,9 C 84 % 1015,3 hPa 0,0 l/m 2 min 0 min 583 W/m 41,8 km/h (6 Bft) 97,83 %
23.09.2023 11:56 15,2 C 17,8 C 13,9 C 84 % 1015,3 hPa 0,0 l/m 2 min 0 min 388 W/m 32,2 km/h (5 Bft) 97,87 %
23.09.2023 11:58 15,3 C 17,8 C 13,9 C 84 % 1015,3 hPa 0,0 l/m 2 min 0 min 353 W/m 29,0 km/h (5 Bft) 97,87 %
23.09.2023 12:00 15,3 C 17,8 C 13,9 C 84 % 1015,3 hPa 0,0 l/m 2 min 0 min 657 W/m 29,0 km/h (5 Bft) 97,87 %
23.09.2023 12:02 15,4 C 17,2 C 13,3 C 84 % 1015,3 hPa 0,0 l/m 2 min 0 min 504 W/m 12,9 km/h (3 Bft) 97,87 %
23.09.2023 12:04 15,4 C 16,7 C 13,3 C 84 % 1015,3 hPa 0,0 l/m 0 min 0 min 240 W/m 12,9 km/h (3 Bft) 98,00 %
23.09.2023 12:08 15,5 C 16,1 C 12,8 C 84 % 1015,3 hPa 0,0 l/m 4 min 0 min 295 W/m 16,1 km/h (3 Bft) 96,74 %
23.09.2023 12:10 15,4 C 15,6 C 12,2 C 83 % 1015,4 hPa 0,0 l/m 0 min 0 min 188 W/m 19,3 km/h (3 Bft) 100,00 %
23.09.2023 12:12 15,4 C 15,6 C 12,2 C 83 % 1015,4 hPa 0,0 l/m 0 min 0 min 224 W/m 16,1 km/h (3 Bft) 100,00 %
23.09.2023 12:16 15,4 C 16,1 C 12,2 C 83 % 1015,4 hPa 0,0 l/m 0 min 0 min 268 W/m 16,1 km/h (3 Bft) 100,00 %
23.09.2023 12:18 15,5 C 16,1 C 12,2 C 83 % 1015,5 hPa 0,0 l/m 0 min 0 min 240 W/m 12,9 km/h (3 Bft) 97,87 %
23.09.2023 12:20 15,6 C 16,1 C 12,2 C 83 % 1015,4 hPa 0,0 l/m 0 min 0 min 232 W/m 12,9 km/h (3 Bft) 100,00 %
23.09.2023 12:22 15,6 C 15,6 C 12,2 C 83 % 1015,5 hPa 0,0 l/m 0 min 0 min 243 W/m 25,7 km/h (4 Bft) 100,00 %
23.09.2023 12:24 15,5 C 15,6 C 11,7 C 82 % 1015,5 hPa 0,0 l/m 0 min 0 min 242 W/m 19,3 km/h (3 Bft) 100,00 %
23.09.2023 12:26 15,4 C 15,6 C 11,7 C 82 % 1015,5 hPa 0,0 l/m 0 min 0 min 235 W/m 19,3 km/h (3 Bft) 97,87 %
23.09.2023 12:28 15,4 C 15,6 C 11,7 C 82 % 1015,5 hPa 0,0 l/m 0 min 0 min 232 W/m 22,5 km/h (4 Bft) 100,00 %
23.09.2023 12:30 15,4 C 15,0 C 11,7 C 82 % 1015,6 hPa 0,0 l/m 0 min 0 min 186 W/m 19,3 km/h (3 Bft) 97,87 %
23.09.2023 12:32 15,3 C 15,0 C 11,1 C 81 % 1015,6 hPa 0,0 l/m 0 min 0 min 180 W/m 16,1 km/h (3 Bft) 100,00 %
23.09.2023 12:34 15,3 C 15,0 C 11,1 C 82 % 1015,5 hPa 0,0 l/m 0 min 0 min 186 W/m 12,9 km/h (3 Bft) 100,00 %
23.09.2023 12:36 15,2 C 15,0 C 11,7 C 82 % 1015,6 hPa 0,0 l/m 0 min 0 min 184 W/m 19,3 km/h (3 Bft) 100,00 %
23.09.2023 12:38 15,2 C 15,0 C 11,7 C 82 % 1015,6 hPa 0,0 l/m 0 min 0 min 198 W/m 19,3 km/h (3 Bft) 100,00 %
23.09.2023 12:40 15,3 C 15,6 C 11,7 C 82 % 1015,5 hPa 0,0 l/m 0 min 0 min 236 W/m 12,9 km/h (3 Bft) 100,00 %
23.09.2023 12:42 15,3 C 15,6 C 11,7 C 82 % 1015,6 hPa 0,0 l/m 0 min 0 min 216 W/m 32,2 km/h (5 Bft) 100,00 %
23.09.2023 12:44 15,3 C 15,6 C 11,7 C 81 % 1015,6 hPa 0,0 l/m 0 min 0 min 191 W/m 29,0 km/h (5 Bft) 100,00 %
23.09.2023 12:46 15,4 C 15,6 C 11,7 C 81 % 1015,6 hPa 0,0 l/m 0 min 0 min 207 W/m 16,1 km/h (3 Bft) 95,74 %
23.09.2023 12:48 15,4 C 15,6 C 11,7 C 81 % 1015,6 hPa 0,0 l/m 0 min 0 min 239 W/m 22,5 km/h (4 Bft) 100,00 %
23.09.2023 12:50 15,4 C 15,6 C 11,7 C 81 % 1015,7 hPa 0,0 l/m 0 min 0 min 226 W/m 19,3 km/h (3 Bft) 100,00 %
23.09.2023 12:52 15,5 C 15,6 C 11,7 C 81 % 1015,6 hPa 0,0 l/m 0 min 0 min 197 W/m 6,4 km/h (2 Bft) 100,00 %
23.09.2023 12:54 15,6 C 15,6 C 11,7 C 82 % 1015,7 hPa 0,0 l/m 0 min 0 min 184 W/m 16,1 km/h (3 Bft) 100,00 %
23.09.2023 12:56 15,6 C 15,6 C 11,7 C 81 % 1015,7 hPa 0,0 l/m 0 min 0 min 208 W/m 16,1 km/h (3 Bft) 97,87 %
23.09.2023 12:58 15,6 C 16,1 C 11,7 C 81 % 1015,7 hPa 0,0 l/m 0 min 0 min 217 W/m 12,9 km/h (3 Bft) 100,00 %
23.09.2023 13:00 15,7 C 16,1 C 12,2 C 81 % 1015,7 hPa 0,0 l/m 0 min 0 min 217 W/m 16,1 km/h (3 Bft) 100,00 %
23.09.2023 13:02 15,7 C 15,6 C 12,2 C 81 % 1015,7 hPa 0,0 l/m 0 min 0 min 181 W/m 16,1 km/h (3 Bft) 97,87 %
23.09.2023 13:04 15,7 C 15,6 C 11,7 C 80 % 1015,7 hPa 0,0 l/m 0 min 0 min 199 W/m 16,1 km/h (3 Bft) 100,00 %
23.09.2023 13:06 15,7 C 16,1 C 11,7 C 80 % 1015,8 hPa 0,0 l/m 0 min 0 min 270 W/m 16,1 km/h (3 Bft) 95,74 %
23.09.2023 13:08 15,7 C 16,1 C 12,2 C 81 % 1015,7 hPa 0,0 l/m 0 min 0 min 256 W/m 19,3 km/h (3 Bft) 95,74 %
23.09.2023 13:10 15,8 C 16,1 C 12,2 C 80 % 1015,9 hPa 0,0 l/m 0 min 0 min 248 W/m 29,0 km/h (5 Bft) 95,74 %
23.09.2023 13:12 15,9 C 16,1 C 12,2 C 79 % 1015,9 hPa 0,0 l/m 0 min 0 min 251 W/m 38,6 km/h (5 Bft) 95,74 %
23.09.2023 13:14 15,9 C 16,1 C 12,2 C 79 % 1015,8 hPa 0,0 l/m 0 min 0 min 276 W/m 35,4 km/h (5 Bft) 95,74 %
23.09.2023 13:16 16,1 C 16,7 C 12,2 C 79 % 1015,8 hPa 0,0 l/m 0 min 0 min 233 W/m 16,1 km/h (3 Bft) 87,23 %
23.09.2023 13:18 16,2 C 16,7 C 12,8 C 80 % 1015,8 hPa 0,0 l/m 0 min 0 min 194 W/m 12,9 km/h (3 Bft) 91,49 %
23.09.2023 13:20 16,2 C 16,7 C 12,8 C 79 % 1015,8 hPa 0,0 l/m 0 min 0 min 214 W/m 16,1 km/h (3 Bft) 95,74 %
23.09.2023 13:22 16,3 C 16,7 C 12,8 C 79 % 1015,9 hPa 0,0 l/m 0 min 0 min 216 W/m 19,3 km/h (3 Bft) 95,74 %
23.09.2023 13:24 16,3 C 16,7 C 12,2 C 78 % 1015,9 hPa 0,0 l/m 0 min 0 min 251 W/m 12,9 km/h (3 Bft) 95,74 %
23.09.2023 13:26 16,3 C 16,7 C 12,8 C 79 % 1016,0 hPa 0,0 l/m 0 min 0 min 264 W/m 22,5 km/h (4 Bft) 95,65 %
23.09.2023 13:28 16,3 C 16,7 C 12,8 C 78 % 1016,1 hPa 0,0 l/m 0 min 0 min 251 W/m 25,7 km/h (4 Bft) 95,74 %
23.09.2023 13:30 16,3 C 16,7 C 12,8 C 78 % 1016,1 hPa 0,0 l/m 0 min 0 min 214 W/m 12,9 km/h (3 Bft) 95,74 %
23.09.2023 13:32 16,3 C 16,1 C 12,2 C 78 % 1016,1 hPa 0,0 l/m 0 min 0 min 213 W/m 12,9 km/h (3 Bft) 95,74 %
23.09.2023 13:34 16,3 C 16,1 C 12,2 C 78 % 1016,2 hPa 0,0 l/m 0 min 0 min 253 W/m 22,5 km/h (4 Bft) 91,49 %
23.09.2023 13:36 16,3 C 16,1 C 12,2 C 78 % 1016,2 hPa 0,0 l/m 0 min 0 min 250 W/m 16,1 km/h (3 Bft) 95,74 %
23.09.2023 13:38 16,3 C 16,1 C 12,2 C 79 % 1016,3 hPa 0,0 l/m 0 min 0 min 221 W/m 22,5 km/h (4 Bft) 95,74 %
23.09.2023 13:40 16,3 C 16,1 C 12,2 C 78 % 1016,2 hPa 0,0 l/m 0 min 0 min 224 W/m 16,1 km/h (3 Bft) 93,62 %
23.09.2023 13:42 16,3 C 16,1 C 12,2 C 79 % 1016,3 hPa 0,0 l/m 0 min 0 min 270 W/m 12,9 km/h (3 Bft) 95,74 %
23.09.2023 13:44 16,3 C 16,7 C 12,2 C 79 % 1016,3 hPa 0,0 l/m 0 min 0 min 276 W/m 12,9 km/h (3 Bft) 97,87 %
23.09.2023 13:46 16,3 C 16,1 C 12,2 C 78 % 1016,3 hPa 0,0 l/m 0 min 0 min 288 W/m 19,3 km/h (3 Bft) 97,87 %
23.09.2023 13:48 16,3 C 16,1 C 12,2 C 78 % 1016,3 hPa 0,0 l/m 0 min 0 min 240 W/m 22,5 km/h (4 Bft) 93,62 %
23.09.2023 13:50 16,2 C 16,1 C 12,2 C 78 % 1016,5 hPa 0,0 l/m 0 min 0 min 276 W/m 22,5 km/h (4 Bft) 97,83 %
23.09.2023 13:52 16,2 C 16,1 C 12,2 C 78 % 1016,4 hPa 0,0 l/m 0 min 0 min 298 W/m 12,9 km/h (3 Bft) 97,87 %
23.09.2023 13:54 16,3 C 16,7 C 12,8 C 79 % 1016,5 hPa 0,0 l/m 2 min 0 min 313 W/m 19,3 km/h (3 Bft) 95,74 %
23.09.2023 13:56 16,3 C 16,7 C 12,8 C 79 % 1016,5 hPa 0,0 l/m 2 min 0 min 749 W/m 19,3 km/h (3 Bft) 100,00 %
23.09.2023 13:58 16,4 C 16,7 C 12,8 C 79 % 1016,4 hPa 0,0 l/m 2 min 0 min 596 W/m 12,9 km/h (3 Bft) 98,00 %
23.09.2023 14:00 16,4 C 16,7 C 12,8 C 78 % 1016,5 hPa 0,0 l/m 0 min 0 min 267 W/m 19,3 km/h (3 Bft) 93,62 %
23.09.2023 14:02 16,3 C 16,7 C 12,8 C 78 % 1016,5 hPa 0,0 l/m 2 min 0 min 317 W/m 25,7 km/h (4 Bft) 97,87 %
23.09.2023 14:04 16,3 C 16,7 C 12,8 C 78 % 1016,6 hPa 0,0 l/m 2 min 0 min 399 W/m 19,3 km/h (3 Bft) 97,62 %
23.09.2023 14:10 16,4 C 16,7 C 12,8 C 78 % 1016,6 hPa 0,0 l/m 5 min 0 min 325 W/m 22,5 km/h (4 Bft) 97,06 %
23.09.2023 14:12 16,4 C 16,7 C 12,2 C 78 % 1016,6 hPa 0,0 l/m 0 min 0 min 277 W/m 16,1 km/h (3 Bft) 94,23 %
23.09.2023 14:14 16,4 C 17,2 C 12,8 C 78 % 1016,5 hPa 0,0 l/m 2 min 0 min 342 W/m 16,1 km/h (3 Bft) 95,74 %
23.09.2023 14:16 16,4 C 16,7 C 12,8 C 78 % 1016,6 hPa 0,0 l/m 2 min 0 min 434 W/m 25,7 km/h (4 Bft) 97,87 %
23.09.2023 14:18 16,4 C 16,7 C 12,8 C 78 % 1016,6 hPa 0,0 l/m 2 min 0 min 300 W/m 16,1 km/h (3 Bft) 95,65 %
23.09.2023 14:20 16,4 C 16,7 C 12,8 C 78 % 1016,6 hPa 0,0 l/m 2 min 0 min 330 W/m 29,0 km/h (5 Bft) 97,87 %
23.09.2023 14:22 16,4 C 16,7 C 12,8 C 78 % 1016,6 hPa 0,0 l/m 0 min 0 min 227 W/m 19,3 km/h (3 Bft) 93,62 %
23.09.2023 14:24 16,4 C 16,1 C 12,2 C 78 % 1016,5 hPa 0,0 l/m 0 min 0 min 153 W/m 12,9 km/h (3 Bft) 95,74 %
23.09.2023 14:26 16,3 C 16,1 C 12,2 C 78 % 1016,6 hPa 0,0 l/m 0 min 0 min 110 W/m 12,9 km/h (3 Bft) 97,87 %
23.09.2023 14:28 16,3 C 16,1 C 12,2 C 78 % 1016,6 hPa 0,0 l/m 0 min 0 min 129 W/m 12,9 km/h (3 Bft) 95,74 %
23.09.2023 14:30 16,3 C 16,1 C 12,2 C 78 % 1016,6 hPa 0,0 l/m 0 min 0 min 161 W/m 12,9 km/h (3 Bft) 95,74 %
23.09.2023 14:32 16,3 C 16,1 C 12,2 C 78 % 1016,7 hPa 0,0 l/m 0 min 0 min 160 W/m 12,9 km/h (3 Bft) 95,74 %
23.09.2023 14:34 16,3 C 16,1 C 12,2 C 79 % 1016,8 hPa 0,0 l/m 0 min 0 min 169 W/m 9,7 km/h (2 Bft) 94,29 %
23.09.2023 14:36 16,3 C 16,1 C 12,2 C 79 % 1016,7 hPa 0,0 l/m 0 min 0 min 208 W/m 9,7 km/h (2 Bft) 97,87 %
23.09.2023 14:38 16,3 C 16,1 C 12,2 C 80 % 1016,7 hPa 0,0 l/m 2 min 0 min 298 W/m 12,9 km/h (3 Bft) 93,62 %
23.09.2023 14:40 16,3 C 16,7 C 12,2 C 80 % 1016,8 hPa 0,0 l/m 2 min 0 min 301 W/m 12,9 km/h (3 Bft) 95,74 %
23.09.2023 14:42 16,3 C 16,1 C 12,2 C 79 % 1016,7 hPa 0,0 l/m 0 min 0 min 218 W/m 12,9 km/h (3 Bft) 95,74 %
23.09.2023 14:44 16,4 C 16,7 C 12,2 C 79 % 1016,8 hPa 0,0 l/m 0 min 0 min 264 W/m 6,4 km/h (2 Bft) 97,87 %
23.09.2023 14:46 16,5 C 16,7 C 12,8 C 80 % 1016,8 hPa 0,0 l/m 2 min 0 min 710 W/m 19,3 km/h (3 Bft) 100,00 %
23.09.2023 14:48 16,6 C 17,2 C 12,8 C 79 % 1016,8 hPa 0,0 l/m 2 min 0 min 522 W/m 9,7 km/h (2 Bft) 97,87 %
23.09.2023 14:50 16,7 C 17,2 C 12,8 C 80 % 1016,8 hPa 0,0 l/m 2 min 0 min 591 W/m 12,9 km/h (3 Bft) 95,74 %
23.09.2023 14:52 16,9 C 17,2 C 12,8 C 79 % 1016,8 hPa 0,0 l/m 2 min 0 min 737 W/m 22,5 km/h (4 Bft) 100,00 %
23.09.2023 14:54 17,1 C 17,8 C 13,3 C 79 % 1016,8 hPa 0,0 l/m 2 min 0 min 784 W/m 22,5 km/h (4 Bft) 96,30 %
23.09.2023 14:56 17,2 C 17,8 C 13,3 C 78 % 1016,8 hPa 0,0 l/m 2 min 0 min 742 W/m 12,9 km/h (3 Bft) 100,00 %
23.09.2023 14:58 17,3 C 17,8 C 13,3 C 77 % 1016,8 hPa 0,0 l/m 2 min 0 min 556 W/m 12,9 km/h (3 Bft) 100,00 %
23.09.2023 15:00 17,3 C 17,2 C 13,3 C 76 % 1016,9 hPa 0,0 l/m 2 min 0 min 526 W/m 22,5 km/h (4 Bft) 95,74 %
23.09.2023 15:02 17,3 C 17,2 C 13,3 C 76 % 1016,8 hPa 0,0 l/m 2 min 0 min 709 W/m 16,1 km/h (3 Bft) 100,00 %
23.09.2023 15:04 17,4 C 17,2 C 13,3 C 75 % 1016,8 hPa 0,0 l/m 2 min 0 min 672 W/m 22,5 km/h (4 Bft) 95,83 %
23.09.2023 15:06 17,4 C 17,2 C 13,3 C 75 % 1016,9 hPa 0,0 l/m 2 min 0 min 531 W/m 16,1 km/h (3 Bft) 97,87 %
23.09.2023 15:08 17,3 C 17,2 C 12,8 C 74 % 1016,9 hPa 0,0 l/m 2 min 0 min 664 W/m 19,3 km/h (3 Bft) 100,00 %
23.09.2023 15:10 17,4 C 17,2 C 12,8 C 75 % 1016,8 hPa 0,0 l/m 2 min 0 min 492 W/m 12,9 km/h (3 Bft) 100,00 %
23.09.2023 15:12 17,4 C 17,2 C 13,3 C 76 % 1016,9 hPa 0,0 l/m 0 min 0 min 264 W/m 12,9 km/h (3 Bft) 97,87 %
23.09.2023 15:14 17,5 C 17,2 C 13,3 C 75 % 1016,9 hPa 0,0 l/m 2 min 0 min 638 W/m 19,3 km/h (3 Bft) 97,87 %
23.09.2023 15:16 17,6 C 17,8 C 13,3 C 76 % 1016,9 hPa 0,0 l/m 2 min 0 min 614 W/m 9,7 km/h (2 Bft) 100,00 %
23.09.2023 15:18 17,6 C 17,2 C 13,3 C 75 % 1017,0 hPa 0,0 l/m 2 min 0 min 602 W/m 22,5 km/h (4 Bft) 97,87 %
23.09.2023 15:20 17,5 C 17,2 C 13,3 C 75 % 1016,9 hPa 0,0 l/m 2 min 0 min 597 W/m 16,1 km/h (3 Bft) 97,87 %
23.09.2023 15:22 17,6 C 17,2 C 13,3 C 76 % 1016,9 hPa 0,0 l/m 2 min 0 min 587 W/m 16,1 km/h (3 Bft) 97,87 %
23.09.2023 15:24 17,6 C 17,2 C 13,3 C 75 % 1016,9 hPa 0,0 l/m 2 min 0 min 592 W/m 19,3 km/h (3 Bft) 97,87 %
23.09.2023 15:26 17,6 C 17,2 C 13,3 C 75 % 1016,9 hPa 0,0 l/m 2 min 0 min 606 W/m 12,9 km/h (3 Bft) 97,87 %
23.09.2023 15:28 17,6 C 17,2 C 13,3 C 74 % 1016,9 hPa 0,0 l/m 2 min 0 min 615 W/m 19,3 km/h (3 Bft) 97,83 %
23.09.2023 15:30 17,6 C 17,2 C 12,8 C 73 % 1016,9 hPa 0,0 l/m 2 min 0 min 541 W/m 25,7 km/h (4 Bft) 97,87 %
23.09.2023 15:32 17,5 C 17,2 C 12,8 C 74 % 1016,9 hPa 0,0 l/m 0 min 0 min 153 W/m 22,5 km/h (4 Bft) 95,74 %
23.09.2023 15:34 17,4 C 17,2 C 12,8 C 75 % 1017,0 hPa 0,0 l/m 2 min 0 min 532 W/m 16,1 km/h (3 Bft) 97,87 %
23.09.2023 15:36 17,4 C 17,2 C 12,8 C 75 % 1017,0 hPa 0,0 l/m 2 min 0 min 567 W/m 22,5 km/h (4 Bft) 97,87 %
23.09.2023 15:38 17,5 C 17,2 C 13,3 C 75 % 1017,0 hPa 0,0 l/m 2 min 0 min 570 W/m 19,3 km/h (3 Bft) 97,87 %
23.09.2023 15:40 17,6 C 17,2 C 13,3 C 75 % 1017,0 hPa 0,0 l/m 2 min 0 min 596 W/m 19,3 km/h (3 Bft) 97,87 %
23.09.2023 15:42 17,6 C 17,2 C 13,3 C 75 % 1017,1 hPa 0,0 l/m 2 min 0 min 599 W/m 22,5 km/h (4 Bft) 97,87 %
23.09.2023 15:44 17,6 C 17,8 C 13,3 C 74 % 1017,0 hPa 0,0 l/m 2 min 0 min 605 W/m 9,7 km/h (2 Bft) 97,87 %
23.09.2023 15:46 17,7 C 17,8 C 13,3 C 74 % 1017,1 hPa 0,0 l/m 2 min 0 min 619 W/m 16,1 km/h (3 Bft) 97,87 %
23.09.2023 15:48 17,8 C 17,8 C 13,3 C 74 % 1017,1 hPa 0,0 l/m 2 min 0 min 536 W/m 12,9 km/h (3 Bft) 97,83 %
23.09.2023 15:50 17,8 C 17,8 C 13,3 C 75 % 1017,1 hPa 0,0 l/m 2 min 0 min 400 W/m 12,9 km/h (3 Bft) 95,74 %
23.09.2023 15:52 17,8 C 17,2 C 13,3 C 74 % 1017,1 hPa 0,0 l/m 0 min 0 min 196 W/m 12,9 km/h (3 Bft) 97,87 %
23.09.2023 15:54 17,7 C 17,2 C 13,3 C 73 % 1017,1 hPa 0,0 l/m 2 min 0 min 247 W/m 12,9 km/h (3 Bft) 97,87 %
23.09.2023 15:56 17,6 C 17,2 C 13,3 C 74 % 1017,1 hPa 0,0 l/m 2 min 0 min 423 W/m 12,9 km/h (3 Bft) 97,87 %
23.09.2023 15:58 17,7 C 17,8 C 13,3 C 74 % 1017,1 hPa 0,0 l/m 2 min 0 min 672 W/m 12,9 km/h (3 Bft) 95,74 %
23.09.2023 16:00 17,7 C 17,8 C 13,3 C 74 % 1017,2 hPa 0,0 l/m 2 min 0 min 653 W/m 19,3 km/h (3 Bft) 97,87 %
23.09.2023 16:02 17,8 C 17,8 C 13,3 C 74 % 1017,3 hPa 0,0 l/m 2 min 0 min 628 W/m 16,1 km/h (3 Bft) 95,74 %
23.09.2023 16:04 17,8 C 17,8 C 13,3 C 74 % 1017,3 hPa 0,0 l/m 2 min 0 min 571 W/m 16,1 km/h (3 Bft) 97,83 %
23.09.2023 16:06 17,8 C 17,8 C 13,3 C 73 % 1017,3 hPa 0,0 l/m 2 min 0 min 536 W/m 16,1 km/h (3 Bft) 100,00 %
23.09.2023 16:08 17,8 C 17,8 C 13,3 C 73 % 1017,3 hPa 0,0 l/m 2 min 0 min 426 W/m 22,5 km/h (4 Bft) 100,00 %
23.09.2023 16:10 17,8 C 17,8 C 13,3 C 73 % 1017,3 hPa 0,0 l/m 2 min 0 min 406 W/m 12,9 km/h (3 Bft) 100,00 %
23.09.2023 16:12 17,8 C 17,8 C 13,3 C 74 % 1017,2 hPa 0,0 l/m 2 min 0 min 355 W/m 12,9 km/h (3 Bft) 97,87 %
23.09.2023 16:14 17,9 C 17,8 C 13,3 C 74 % 1017,2 hPa 0,0 l/m 0 min 0 min 154 W/m 16,1 km/h (3 Bft) 97,87 %
23.09.2023 16:16 17,8 C 17,2 C 13,3 C 74 % 1017,2 hPa 0,0 l/m 0 min 0 min 131 W/m 9,7 km/h (2 Bft) 97,87 %
23.09.2023 16:18 17,7 C 17,2 C 13,3 C 73 % 1017,3 hPa 0,0 l/m 0 min 0 min 147 W/m 12,9 km/h (3 Bft) 97,87 %
23.09.2023 16:20 17,6 C 16,7 C 12,8 C 73 % 1017,2 hPa 0,0 l/m 0 min 0 min 149 W/m 12,9 km/h (3 Bft) 95,45 %
23.09.2023 16:22 17,4 C 16,7 C 12,8 C 74 % 1017,3 hPa 0,0 l/m 0 min 0 min 147 W/m 6,4 km/h (2 Bft) 97,96 %
23.09.2023 16:24 17,4 C 16,7 C 12,8 C 75 % 1017,3 hPa 0,0 l/m 0 min 0 min 142 W/m 16,1 km/h (3 Bft) 97,92 %
23.09.2023 16:26 17,4 C 16,7 C 12,8 C 74 % 1017,3 hPa 0,0 l/m 0 min 0 min 140 W/m 12,9 km/h (3 Bft) 97,87 %
23.09.2023 16:28 17,3 C 16,7 C 12,8 C 74 % 1017,4 hPa 0,0 l/m 0 min 0 min 145 W/m 19,3 km/h (3 Bft) 95,74 %
23.09.2023 16:30 17,3 C 16,7 C 12,8 C 75 % 1017,5 hPa 0,0 l/m 0 min 0 min 135 W/m 6,4 km/h (2 Bft) 95,74 %
23.09.2023 16:32 17,2 C 16,7 C 12,8 C 75 % 1017,5 hPa 0,0 l/m 0 min 0 min 121 W/m 6,4 km/h (2 Bft) 97,83 %
23.09.2023 16:34 17,2 C 16,7 C 12,8 C 75 % 1017,5 hPa 0,0 l/m 0 min 0 min 116 W/m 12,9 km/h (3 Bft) 97,87 %
23.09.2023 16:36 17,2 C 16,7 C 12,8 C 75 % 1017,5 hPa 0,0 l/m 0 min 0 min 112 W/m 12,9 km/h (3 Bft) 97,62 %
23.09.2023 16:38 17,1 C 16,7 C 12,8 C 76 % 1017,5 hPa 0,0 l/m 0 min 0 min 127 W/m 16,1 km/h (3 Bft) 95,74 %
23.09.2023 16:40 17,1 C 16,7 C 12,8 C 75 % 1017,5 hPa 0,0 l/m 0 min 0 min 174 W/m 16,1 km/h (3 Bft) 95,74 %
23.09.2023 16:42 17,1 C 16,7 C 12,8 C 76 % 1017,5 hPa 0,0 l/m 0 min 0 min 181 W/m 9,7 km/h (2 Bft) 95,74 %
23.09.2023 16:44 17,1 C 16,7 C 12,8 C 75 % 1017,5 hPa 0,0 l/m 0 min 0 min 144 W/m 16,1 km/h (3 Bft) 95,65 %
23.09.2023 16:46 17,1 C 16,7 C 12,8 C 75 % 1017,5 hPa 0,0 l/m 0 min 0 min 115 W/m 6,4 km/h (2 Bft) 93,62 %
23.09.2023 16:48 17,1 C 16,7 C 12,8 C 75 % 1017,6 hPa 0,0 l/m 0 min 0 min 110 W/m 19,3 km/h (3 Bft) 95,74 %
23.09.2023 16:50 17,0 C 16,7 C 12,8 C 75 % 1017,6 hPa 0,0 l/m 0 min 0 min 99 W/m 12,9 km/h (3 Bft) 97,87 %
23.09.2023 16:52 17,0 C 16,7 C 12,8 C 75 % 1017,7 hPa 0,0 l/m 0 min 0 min 94 W/m 12,9 km/h (3 Bft) 97,87 %
23.09.2023 16:54 17,0 C 16,7 C 12,8 C 76 % 1017,7 hPa 0,0 l/m 0 min 0 min 90 W/m 19,3 km/h (3 Bft) 97,96 %
23.09.2023 16:56 16,9 C 16,1 C 12,8 C 75 % 1017,8 hPa 0,0 l/m 0 min 0 min 83 W/m 19,3 km/h (3 Bft) 93,62 %
23.09.2023 16:58 16,9 C 16,1 C 12,8 C 75 % 1017,8 hPa 0,0 l/m 0 min 0 min 78 W/m 12,9 km/h (3 Bft) 97,87 %
23.09.2023 17:00 16,9 C 16,1 C 12,8 C 76 % 1017,7 hPa 0,0 l/m 0 min 0 min 74 W/m 16,1 km/h (3 Bft) 97,87 %
23.09.2023 17:02 16,9 C 16,1 C 12,8 C 76 % 1017,9 hPa 0,0 l/m 0 min 0 min 68 W/m 12,9 km/h (3 Bft) 97,96 %
23.09.2023 17:04 16,8 C 16,1 C 12,2 C 76 % 1017,9 hPa 0,0 l/m 0 min 0 min 69 W/m 16,1 km/h (3 Bft) 95,24 %
23.09.2023 17:08 16,8 C 16,1 C 12,2 C 76 % 1017,9 hPa 0,0 l/m 0 min 0 min 78 W/m 16,1 km/h (3 Bft) 95,19 %
23.09.2023 17:10 16,7 C 16,1 C 12,2 C 77 % 1017,9 hPa 0,0 l/m 0 min 0 min 86 W/m 16,1 km/h (3 Bft) 97,14 %
23.09.2023 17:12 16,7 C 16,1 C 12,2 C 76 % 1018,0 hPa 0,0 l/m 0 min 0 min 92 W/m 16,1 km/h (3 Bft) 95,74 %
23.09.2023 17:14 16,7 C 16,1 C 12,2 C 76 % 1018,0 hPa 0,0 l/m 0 min 0 min 90 W/m 12,9 km/h (3 Bft) 97,87 %
23.09.2023 17:16 16,7 C 16,1 C 12,2 C 76 % 1018,0 hPa 0,0 l/m 0 min 0 min 83 W/m 6,4 km/h (2 Bft) 97,87 %
23.09.2023 17:18 16,6 C 16,1 C 12,2 C 76 % 1018,0 hPa 0,0 l/m 0 min 0 min 70 W/m 16,1 km/h (3 Bft) 97,92 %
23.09.2023 17:20 16,6 C 16,1 C 12,2 C 76 % 1018,0 hPa 0,0 l/m 0 min 0 min 55 W/m 12,9 km/h (3 Bft) 97,87 %
23.09.2023 17:22 16,6 C 15,6 C 12,2 C 76 % 1018,1 hPa 0,0 l/m 0 min 0 min 43 W/m 12,9 km/h (3 Bft) 97,87 %
23.09.2023 17:24 16,6 C 15,6 C 12,2 C 77 % 1018,2 hPa 0,0 l/m 0 min 0 min 39 W/m 19,3 km/h (3 Bft) 97,87 %
23.09.2023 17:26 16,6 C 15,6 C 11,7 C 78 % 1018,2 hPa 0,0 l/m 0 min 0 min 42 W/m 22,5 km/h (4 Bft) 97,87 %
23.09.2023 17:28 16,4 C 15,6 C 11,7 C 79 % 1018,3 hPa 0,0 l/m 0 min 0 min 49 W/m 25,7 km/h (4 Bft) 97,87 %
23.09.2023 17:30 16,3 C 15,0 C 11,7 C 80 % 1018,4 hPa 0,0 l/m 0 min 0 min 57 W/m 12,9 km/h (3 Bft) 97,87 %
23.09.2023 17:32 16,2 C 15,0 C 11,7 C 80 % 1018,4 hPa 0,0 l/m 0 min 0 min 76 W/m 16,1 km/h (3 Bft) 100,00 %
23.09.2023 17:34 16,1 C 15,0 C 11,7 C 80 % 1018,4 hPa 0,0 l/m 0 min 0 min 70 W/m 9,7 km/h (2 Bft) 100,00 %
23.09.2023 17:36 16,0 C 15,0 C 11,7 C 81 % 1018,4 hPa 0,0 l/m 0 min 0 min 74 W/m 16,1 km/h (3 Bft) 97,87 %
23.09.2023 17:38 15,9 C 15,0 C 11,7 C 81 % 1018,4 hPa 0,0 l/m 0 min 0 min 76 W/m 12,9 km/h (3 Bft) 100,00 %
23.09.2023 17:40 15,9 C 15,0 C 11,7 C 81 % 1018,4 hPa 0,0 l/m 0 min 0 min 74 W/m 6,4 km/h (2 Bft) 97,83 %
23.09.2023 17:42 15,8 C 15,0 C 11,7 C 81 % 1018,5 hPa 0,0 l/m 0 min 0 min 75 W/m 12,9 km/h (3 Bft) 97,87 %
23.09.2023 17:44 15,8 C 15,0 C 11,7 C 81 % 1018,5 hPa 0,0 l/m 0 min 0 min 73 W/m 12,9 km/h (3 Bft) 95,74 %
23.09.2023 17:46 15,8 C 15,0 C 11,7 C 81 % 1018,6 hPa 0,0 l/m 0 min 0 min 69 W/m 9,7 km/h (2 Bft) 97,87 %
23.09.2023 17:48 15,7 C 15,0 C 11,7 C 81 % 1018,6 hPa 0,0 l/m 0 min 0 min 70 W/m 12,9 km/h (3 Bft) 97,87 %
23.09.2023 17:50 15,7 C 15,0 C 11,7 C 81 % 1018,7 hPa 0,0 l/m 0 min 0 min 69 W/m 16,1 km/h (3 Bft) 97,87 %
23.09.2023 17:52 15,7 C 15,0 C 11,7 C 81 % 1018,7 hPa 0,0 l/m 0 min 0 min 64 W/m 6,4 km/h (2 Bft) 97,87 %
23.09.2023 17:54 15,7 C 15,0 C 11,7 C 81 % 1018,7 hPa 0,0 l/m 0 min 0 min 58 W/m 9,7 km/h (2 Bft) 97,87 %
23.09.2023 17:56 15,7 C 15,0 C 11,7 C 82 % 1018,7 hPa 0,0 l/m 0 min 0 min 53 W/m 6,4 km/h (2 Bft) 97,87 %
23.09.2023 17:58 15,7 C 15,0 C 11,7 C 82 % 1018,7 hPa 0,0 l/m 0 min 0 min 49 W/m 12,9 km/h (3 Bft) 97,87 %
23.09.2023 18:00 15,7 C 15,0 C 11,7 C 82 % 1018,8 hPa 0,0 l/m 0 min 0 min 45 W/m 9,7 km/h (2 Bft) 97,83 %
23.09.2023 18:02 15,7 C 15,0 C 11,7 C 82 % 1018,8 hPa 0,0 l/m 0 min 0 min 38 W/m 19,3 km/h (3 Bft) 97,87 %
23.09.2023 18:04 15,7 C 15,0 C 11,1 C 82 % 1018,8 hPa 0,0 l/m 0 min 0 min 29 W/m 22,5 km/h (4 Bft) 97,62 %
23.09.2023 18:08 15,6 C 15,0 C 11,1 C 82 % 1018,9 hPa 0,0 l/m 0 min 0 min 24 W/m 16,1 km/h (3 Bft) 96,81 %
23.09.2023 18:10 15,6 C 14,4 C 11,1 C 82 % 1018,9 hPa 0,0 l/m 0 min 0 min 24 W/m 12,9 km/h (3 Bft) 95,74 %
23.09.2023 18:12 15,6 C 14,4 C 11,1 C 83 % 1018,9 hPa 0,0 l/m 0 min 0 min 25 W/m 16,1 km/h (3 Bft) 97,87 %
23.09.2023 18:16 15,4 C 14,4 C 11,1 C 83 % 1018,9 hPa 0,0 l/m 0 min 0 min 31 W/m 19,3 km/h (3 Bft) 98,94 %
23.09.2023 18:18 15,4 C 14,4 C 11,1 C 83 % 1018,9 hPa 0,0 l/m 0 min 0 min 50 W/m 9,7 km/h (2 Bft) 100,00 %
23.09.2023 18:20 15,3 C 14,4 C 11,1 C 84 % 1018,9 hPa 0,0 l/m 0 min 0 min 55 W/m 12,9 km/h (3 Bft) 100,00 %
23.09.2023 18:22 15,3 C 14,4 C 11,1 C 84 % 1019,0 hPa 0,0 l/m 0 min 0 min 72 W/m 6,4 km/h (2 Bft) 97,87 %
23.09.2023 18:24 15,3 C 15,0 C 11,1 C 85 % 1019,0 hPa 0,0 l/m 2 min 0 min 90 W/m 6,4 km/h (2 Bft) 93,62 %
23.09.2023 18:26 15,3 C 15,0 C 11,1 C 85 % 1019,0 hPa 0,0 l/m 2 min 0 min 99 W/m 3,2 km/h (1 Bft) 56,41 %
23.09.2023 18:28 15,4 C 15,0 C 11,1 C 85 % 1019,0 hPa 0,0 l/m 2 min 0 min 91 W/m 3,2 km/h (1 Bft) 100,00 %
23.09.2023 18:30 15,4 C 15,0 C 11,1 C 85 % 1019,0 hPa 0,0 l/m 2 min 0 min 97 W/m 12,9 km/h (3 Bft) 100,00 %
23.09.2023 18:32 15,4 C 15,0 C 11,1 C 86 % 1019,0 hPa 0,0 l/m 2 min 0 min 104 W/m 6,4 km/h (2 Bft) 97,87 %
23.09.2023 18:34 15,4 C 15,0 C 11,1 C 86 % 1019,0 hPa 0,0 l/m 2 min 0 min 87 W/m 6,4 km/h (2 Bft) 100,00 %
23.09.2023 18:36 15,4 C 15,0 C 11,1 C 86 % 1019,1 hPa 0,0 l/m 2 min 0 min 68 W/m 6,4 km/h (2 Bft) 100,00 %
23.09.2023 18:38 15,4 C 15,0 C 11,1 C 86 % 1019,1 hPa 0,0 l/m 2 min 0 min 65 W/m 6,4 km/h (2 Bft) 97,87 %
23.09.2023 18:40 15,4 C 15,0 C 11,1 C 86 % 1019,1 hPa 0,0 l/m 2 min 0 min 61 W/m 6,4 km/h (2 Bft) 97,87 %
23.09.2023 18:42 15,4 C 15,0 C 11,1 C 86 % 1019,1 hPa 0,0 l/m 0 min 0 min 57 W/m 3,2 km/h (1 Bft) 97,83 %
23.09.2023 18:44 15,4 C 15,0 C 11,1 C 86 % 1019,1 hPa 0,0 l/m 0 min 0 min 53 W/m 6,4 km/h (2 Bft) 100,00 %
23.09.2023 18:46 15,4 C 15,0 C 11,1 C 86 % 1019,1 hPa 0,0 l/m 0 min 0 min 49 W/m 6,4 km/h (2 Bft) 97,87 %
23.09.2023 18:48 15,4 C 15,0 C 11,1 C 86 % 1019,2 hPa 0,0 l/m 0 min 0 min 45 W/m 6,4 km/h (2 Bft) 97,87 %
23.09.2023 18:50 15,4 C 14,4 C 11,1 C 86 % 1019,2 hPa 0,0 l/m 0 min 0 min 40 W/m 6,4 km/h (2 Bft) 95,74 %
23.09.2023 18:52 15,4 C 14,4 C 11,1 C 86 % 1019,2 hPa 0,0 l/m 0 min 0 min 35 W/m 6,4 km/h (2 Bft) 97,87 %
23.09.2023 18:54 15,4 C 14,4 C 11,1 C 86 % 1019,3 hPa 0,0 l/m 0 min 0 min 33 W/m 6,4 km/h (2 Bft) 97,87 %
23.09.2023 18:56 15,3 C 14,4 C 11,1 C 86 % 1019,3 hPa 0,0 l/m 0 min 0 min 28 W/m 9,7 km/h (2 Bft) 97,87 %
23.09.2023 18:58 15,3 C 14,4 C 11,1 C 86 % 1019,3 hPa 0,0 l/m 0 min 0 min 26 W/m 3,2 km/h (1 Bft) 97,87 %
23.09.2023 19:00 15,3 C 14,4 C 11,1 C 86 % 1019,3 hPa 0,0 l/m 0 min 0 min 24 W/m 3,2 km/h (1 Bft) 97,83 %
23.09.2023 19:02 15,3 C 14,4 C 11,1 C 86 % 1019,3 hPa 0,0 l/m 0 min 0 min 22 W/m 3,2 km/h (1 Bft) 97,87 %
23.09.2023 19:04 15,3 C 14,4 C 11,1 C 86 % 1019,5 hPa 0,0 l/m 0 min 0 min 20 W/m 3,2 km/h (1 Bft) 94,23 %
23.09.2023 19:06 15,3 C 14,4 C 11,1 C 86 % 1019,5 hPa 0,0 l/m 0 min 0 min 19 W/m 3,2 km/h (1 Bft) 97,87 %
23.09.2023 19:08 15,3 C 14,4 C 11,1 C 86 % 1019,5 hPa 0,0 l/m 0 min 0 min 18 W/m 3,2 km/h (1 Bft) 97,87 %
23.09.2023 19:10 15,3 C 14,4 C 11,1 C 86 % 1019,5 hPa 0,0 l/m 0 min 0 min 16 W/m 9,7 km/h (2 Bft) 95,74 %
23.09.2023 19:12 15,3 C 14,4 C 11,1 C 86 % 1019,5 hPa 0,0 l/m 0 min 0 min 14 W/m 9,7 km/h (2 Bft) 97,87 %
23.09.2023 19:14 15,3 C 14,4 C 11,1 C 86 % 1019,5 hPa 0,0 l/m 0 min 0 min 12 W/m 6,4 km/h (2 Bft) 97,87 %
23.09.2023 19:16 15,2 C 14,4 C 11,1 C 86 % 1019,6 hPa 0,0 l/m 0 min 0 min 11 W/m 12,9 km/h (3 Bft) 97,87 %
23.09.2023 19:18 15,2 C 14,4 C 11,1 C 86 % 1019,5 hPa 0,0 l/m 0 min 0 min 10 W/m 3,2 km/h (1 Bft) 97,83 %
23.09.2023 19:20 15,2 C 14,4 C 11,1 C 86 % 1019,6 hPa 0,0 l/m 0 min 0 min 9 W/m 3,2 km/h (1 Bft) 97,87 %
23.09.2023 19:22 15,2 C 14,4 C 11,1 C 86 % 1019,6 hPa 0,0 l/m 0 min 0 min 8 W/m 6,4 km/h (2 Bft) 93,62 %
23.09.2023 19:24 15,2 C 14,4 C 11,1 C 86 % 1019,6 hPa 0,0 l/m 0 min 0 min 7 W/m 3,2 km/h (1 Bft) 93,62 %
23.09.2023 19:26 15,2 C 14,4 C 11,1 C 86 % 1019,6 hPa 0,0 l/m 0 min 0 min 7 W/m 3,2 km/h (1 Bft) 93,62 %
23.09.2023 19:28 15,2 C 14,4 C 11,1 C 86 % 1019,7 hPa 0,0 l/m 0 min 0 min 7 W/m 12,9 km/h (3 Bft) 97,87 %
23.09.2023 19:30 15,2 C 14,4 C 11,1 C 86 % 1019,7 hPa 0,0 l/m 0 min 0 min 5 W/m 6,4 km/h (2 Bft) 95,74 %
23.09.2023 19:32 15,2 C 14,4 C 11,1 C 86 % 1019,7 hPa 0,0 l/m 0 min 0 min 5 W/m 9,7 km/h (2 Bft) 100,00 %
23.09.2023 19:34 15,2 C 14,4 C 11,1 C 86 % 1019,7 hPa 0,0 l/m 0 min 0 min 1 W/m 6,4 km/h (2 Bft) 97,87 %
23.09.2023 19:36 15,1 C 14,4 C 11,1 C 86 % 1019,7 hPa 0,0 l/m 0 min 0 min 0 W/m 3,2 km/h (1 Bft) 95,65 %
23.09.2023 19:38 15,1 C 14,4 C 11,1 C 86 % 1019,8 hPa 0,0 l/m 0 min 0 min 0 W/m 3,2 km/h (1 Bft) 93,62 %
23.09.2023 19:40 15,1 C 14,4 C 11,1 C 86 % 1019,8 hPa 0,0 l/m 0 min 0 min 0 W/m 3,2 km/h (1 Bft) 95,74 %
23.09.2023 19:42 15,1 C 14,4 C 11,1 C 86 % 1019,8 hPa 0,0 l/m 0 min 0 min 0 W/m 6,4 km/h (2 Bft) 96,00 %
23.09.2023 19:44 15,1 C 14,4 C 11,1 C 86 % 1019,9 hPa 0,0 l/m 0 min 0 min 0 W/m 3,2 km/h (1 Bft) 94,29 %
23.09.2023 19:46 15,1 C 14,4 C 10,6 C 86 % 1019,9 hPa 0,0 l/m 0 min 0 min 0 W/m 3,2 km/h (1 Bft) 94,34 %
23.09.2023 19:48 15,1 C 14,4 C 10,6 C 86 % 1020,0 hPa 0,0 l/m 0 min 0 min 0 W/m 3,2 km/h (1 Bft) 93,62 %
23.09.2023 19:50 15,1 C 14,4 C 10,6 C 86 % 1020,0 hPa 0,0 l/m 0 min 0 min 0 W/m 3,2 km/h (1 Bft) 95,74 %
23.09.2023 19:52 15,1 C 14,4 C 10,6 C 86 % 1020,0 hPa 0,0 l/m 0 min 0 min 0 W/m 6,4 km/h (2 Bft) 93,62 %
23.09.2023 19:54 15,1 C 14,4 C 10,6 C 86 % 1020,1 hPa 0,0 l/m 0 min 0 min 0 W/m 6,4 km/h (2 Bft) 93,62 %
23.09.2023 19:56 15,1 C 14,4 C 10,6 C 86 % 1020,0 hPa 0,0 l/m 0 min 0 min 0 W/m 6,4 km/h (2 Bft) 95,65 %
23.09.2023 19:58 15,1 C 14,4 C 10,6 C 86 % 1020,1 hPa 0,0 l/m 0 min 0 min 0 W/m 3,2 km/h (1 Bft) 95,74 %
23.09.2023 20:00 15,1 C 13,9 C 10,6 C 86 % 1020,1 hPa 0,0 l/m 0 min 0 min 0 W/m 0,0 km/h (0 Bft) 93,62 %
23.09.2023 20:02 15,1 C 13,9 C 10,6 C 86 % 1020,1 hPa 0,0 l/m 0 min 0 min 0 W/m 6,4 km/h (2 Bft) 95,74 %
23.09.2023 20:04 15,0 C 13,9 C 10,6 C 86 % 1020,1 hPa 0,0 l/m 0 min 0 min 0 W/m 3,2 km/h (1 Bft) 93,75 %
23.09.2023 20:10 15,0 C 13,9 C 10,6 C 86 % 1020,2 hPa 0,0 l/m 0 min 0 min 0 W/m 6,4 km/h (2 Bft) 96,58 %
23.09.2023 20:12 14,9 C 13,9 C 10,6 C 86 % 1020,3 hPa 0,0 l/m 0 min 0 min 0 W/m 6,4 km/h (2 Bft) 97,87 %
23.09.2023 20:14 14,9 C 13,9 C 10,6 C 87 % 1020,2 hPa 0,0 l/m 0 min 0 min 0 W/m 3,2 km/h (1 Bft) 95,74 %
23.09.2023 20:16 14,9 C 13,9 C 10,6 C 87 % 1020,3 hPa 0,0 l/m 0 min 0 min 0 W/m 3,2 km/h (1 Bft) 95,74 %
23.09.2023 20:18 14,9 C 13,9 C 10,6 C 87 % 1020,3 hPa 0,0 l/m 0 min 0 min 0 W/m 3,2 km/h (1 Bft) 97,14 %
23.09.2023 20:20 14,9 C 13,9 C 10,6 C 87 % 1020,3 hPa 0,0 l/m 0 min 0 min 0 W/m 3,2 km/h (1 Bft) 96,61 %
23.09.2023 20:22 14,9 C 13,9 C 10,6 C 87 % 1020,4 hPa 0,0 l/m 0 min 0 min 0 W/m 3,2 km/h (1 Bft) 100,00 %
23.09.2023 20:24 14,9 C 13,9 C 10,6 C 87 % 1020,4 hPa 0,0 l/m 0 min 0 min 0 W/m 6,4 km/h (2 Bft) 97,87 %
23.09.2023 20:26 14,9 C 13,9 C 10,6 C 87 % 1020,4 hPa 0,0 l/m 0 min 0 min 0 W/m 3,2 km/h (1 Bft) 97,87 %
23.09.2023 20:28 14,9 C 13,9 C 10,6 C 87 % 1020,5 hPa 0,0 l/m 0 min 0 min 0 W/m 3,2 km/h (1 Bft) 100,00 %
23.09.2023 20:30 14,9 C 13,9 C 10,6 C 87 % 1020,5 hPa 0,0 l/m 0 min 0 min 0 W/m 6,4 km/h (2 Bft) 100,00 %
23.09.2023 20:32 14,9 C 13,9 C 10,6 C 87 % 1020,5 hPa 0,0 l/m 0 min 0 min 0 W/m 3,2 km/h (1 Bft) 100,00 %
23.09.2023 20:34 14,9 C 13,9 C 10,6 C 87 % 1020,5 hPa 0,0 l/m 0 min 0 min 0 W/m 6,4 km/h (2 Bft) 100,00 %
23.09.2023 20:36 14,9 C 13,9 C 10,6 C 87 % 1020,6 hPa 0,0 l/m 0 min 0 min 0 W/m 3,2 km/h (1 Bft) 100,00 %
23.09.2023 20:38 14,9 C 13,9 C 10,6 C 87 % 1020,6 hPa 0,0 l/m 0 min 0 min 0 W/m 3,2 km/h (1 Bft) 100,00 %
23.09.2023 20:40 14,9 C 13,9 C 10,6 C 87 % 1020,7 hPa 0,0 l/m 0 min 0 min 0 W/m 3,2 km/h (1 Bft) 100,00 %
23.09.2023 20:42 14,8 C 13,9 C 10,6 C 87 % 1020,7 hPa 0,0 l/m 0 min 0 min 0 W/m 0,0 km/h (0 Bft) 97,87 %
23.09.2023 20:44 14,8 C 13,9 C 10,6 C 87 % 1020,8 hPa 0,0 l/m 0 min 0 min 0 W/m 3,2 km/h (1 Bft) 100,00 %
23.09.2023 20:46 14,8 C 13,9 C 10,6 C 88 % 1020,8 hPa 0,0 l/m 0 min 0 min 0 W/m 3,2 km/h (1 Bft) 100,00 %
23.09.2023 20:48 14,8 C 13,9 C 10,6 C 88 % 1020,8 hPa 0,0 l/m 0 min 0 min 0 W/m 3,2 km/h (1 Bft) 100,00 %
23.09.2023 20:50 14,8 C 13,9 C 10,6 C 88 % 1020,9 hPa 0,0 l/m 0 min 0 min 0 W/m 3,2 km/h (1 Bft) 100,00 %
23.09.2023 20:52 14,8 C 13,9 C 10,6 C 88 % 1020,9 hPa 0,0 l/m 0 min 0 min 0 W/m 3,2 km/h (1 Bft) 100,00 %
23.09.2023 20:54 14,8 C 13,9 C 10,6 C 88 % 1020,9 hPa 0,0 l/m 0 min 0 min 0 W/m 6,4 km/h (2 Bft) 100,00 %
23.09.2023 20:56 14,7 C 13,9 C 10,6 C 88 % 1021,0 hPa 0,0 l/m 0 min 0 min 0 W/m 3,2 km/h (1 Bft) 100,00 %
23.09.2023 20:58 14,7 C 13,9 C 10,6 C 88 % 1021,0 hPa 0,0 l/m 0 min 0 min 0 W/m 3,2 km/h (1 Bft) 100,00 %
23.09.2023 21:00 14,7 C 13,9 C 10,6 C 88 % 1021,0 hPa 0,0 l/m 0 min 0 min 0 W/m 3,2 km/h (1 Bft) 100,00 %
23.09.2023 21:02 14,7 C 13,9 C 10,0 C 88 % 1021,0 hPa 0,0 l/m 0 min 0 min 0 W/m 0,0 km/h (0 Bft) 100,00 %
23.09.2023 21:04 14,7 C 13,9 C 10,0 C 88 % 1021,0 hPa 0,0 l/m 0 min 0 min 0 W/m 3,2 km/h (1 Bft) 100,00 %
23.09.2023 21:10 14,7 C 13,9 C 10,0 C 88 % 1021,2 hPa 0,0 l/m 0 min 0 min 0 W/m 0,0 km/h (0 Bft) 97,97 %
23.09.2023 21:12 14,7 C 13,9 C 10,0 C 89 % 1021,2 hPa 0,0 l/m 0 min 0 min 0 W/m 0,0 km/h (0 Bft) 100,00 %
23.09.2023 21:14 14,7 C 13,3 C 10,0 C 89 % 1021,2 hPa 0,0 l/m 0 min 0 min 0 W/m 3,2 km/h (1 Bft) 100,00 %
23.09.2023 21:16 14,7 C 13,3 C 10,0 C 89 % 1021,2 hPa 0,0 l/m 0 min 0 min 0 W/m 0,0 km/h (0 Bft) 100,00 %
23.09.2023 21:18 14,7 C 13,3 C 9,4 C 89 % 1021,3 hPa 0,0 l/m 0 min 0 min 0 W/m 0,0 km/h (0 Bft) 100,00 %
23.09.2023 21:20 14,7 C 13,3 C 9,4 C 89 % 1021,3 hPa 0,0 l/m 0 min 0 min 0 W/m 0,0 km/h (0 Bft) 100,00 %
23.09.2023 21:22 14,7 C 13,3 C 9,4 C 89 % 1021,4 hPa 0,0 l/m 0 min 0 min 0 W/m 0,0 km/h (0 Bft) 97,87 %
23.09.2023 21:24 14,6 C 13,3 C 10,0 C 89 % 1021,4 hPa 0,0 l/m 0 min 0 min 0 W/m 3,2 km/h (1 Bft) 96,00 %
23.09.2023 21:26 14,6 C 13,3 C 10,0 C 89 % 1021,4 hPa 0,0 l/m 0 min 0 min 0 W/m 0,0 km/h (0 Bft) 100,00 %
23.09.2023 21:28 14,6 C 13,9 C 10,0 C 89 % 1021,5 hPa 0,0 l/m 0 min 0 min 0 W/m 3,2 km/h (1 Bft) 100,00 %
23.09.2023 21:30 14,6 C 13,9 C 9,4 C 89 % 1021,5 hPa 0,0 l/m 0 min 0 min 0 W/m 3,2 km/h (1 Bft) 97,87 %
23.09.2023 21:32 14,6 C 13,9 C 9,4 C 89 % 1021,5 hPa 0,0 l/m 0 min 0 min 0 W/m 0,0 km/h (0 Bft) 95,74 %
23.09.2023 21:34 14,6 C 13,3 C 9,4 C 89 % 1021,5 hPa 0,0 l/m 0 min 0 min 0 W/m 0,0 km/h (0 Bft) 97,87 %
23.09.2023 21:36 14,6 C 13,9 C 9,4 C 89 % 1021,6 hPa 0,0 l/m 0 min 0 min 0 W/m 0,0 km/h (0 Bft) 95,74 %
23.09.2023 21:38 14,6 C 13,9 C 9,4 C 89 % 1021,6 hPa 0,0 l/m 0 min 0 min 0 W/m 0,0 km/h (0 Bft) 100,00 %
23.09.2023 21:40 14,6 C 13,3 C 9,4 C 89 % 1021,6 hPa 0,0 l/m 0 min 0 min 0 W/m 3,2 km/h (1 Bft) 93,62 %
23.09.2023 21:42 14,6 C 13,3 C 9,4 C 89 % 1021,6 hPa 0,0 l/m 0 min 0 min 0 W/m 0,0 km/h (0 Bft) 95,65 %
23.09.2023 21:44 14,6 C 13,3 C 10,0 C 89 % 1021,6 hPa 0,0 l/m 0 min 0 min 0 W/m 0,0 km/h (0 Bft) 93,62 %
23.09.2023 21:46 14,6 C 13,3 C 9,4 C 89 % 1021,6 hPa 0,0 l/m 0 min 0 min 0 W/m 3,2 km/h (1 Bft) 91,49 %
23.09.2023 21:48 14,5 C 13,3 C 9,4 C 89 % 1021,7 hPa 0,0 l/m 0 min 0 min 0 W/m 0,0 km/h (0 Bft) 95,74 %
23.09.2023 21:50 14,4 C 13,3 C 9,4 C 89 % 1021,7 hPa 0,0 l/m 0 min 0 min 0 W/m 0,0 km/h (0 Bft) 95,74 %
23.09.2023 21:52 14,4 C 13,3 C 9,4 C 89 % 1021,7 hPa 0,0 l/m 0 min 0 min 0 W/m 0,0 km/h (0 Bft) 95,74 %
23.09.2023 21:54 14,4 C 13,3 C 9,4 C 89 % 1021,7 hPa 0,0 l/m 0 min 0 min 0 W/m 0,0 km/h (0 Bft) 94,29 %
23.09.2023 21:56 14,3 C 13,3 C 9,4 C 89 % 1021,8 hPa 0,0 l/m 0 min 0 min 0 W/m 3,2 km/h (1 Bft) 95,83 %
23.09.2023 21:58 14,3 C 13,3 C 9,4 C 90 % 1021,8 hPa 0,0 l/m 0 min 0 min 0 W/m 3,2 km/h (1 Bft) 95,74 %
23.09.2023 22:00 14,3 C 13,3 C 9,4 C 90 % 1021,8 hPa 0,0 l/m 0 min 0 min 0 W/m 0,0 km/h (0 Bft) 95,74 %
23.09.2023 22:02 14,3 C 13,3 C 9,4 C 90 % 1021,9 hPa 0,0 l/m 0 min 0 min 0 W/m 0,0 km/h (0 Bft) 95,74 %
23.09.2023 22:04 14,3 C 13,3 C 9,4 C 90 % 1021,9 hPa 0,0 l/m 0 min 0 min 0 W/m 0,0 km/h (0 Bft) 100,00 %
23.09.2023 22:10 14,3 C 13,3 C 9,4 C 90 % 1022,0 hPa 0,0 l/m 0 min 0 min 0 W/m 0,0 km/h (0 Bft) 96,48 %
23.09.2023 22:12 14,3 C 13,3 C 9,4 C 90 % 1022,0 hPa 0,0 l/m 0 min 0 min 0 W/m 0,0 km/h (0 Bft) 97,87 %
23.09.2023 22:14 14,2 C 12,8 C 9,4 C 90 % 1022,0 hPa 0,0 l/m 0 min 0 min 0 W/m 0,0 km/h (0 Bft) 97,87 %
23.09.2023 22:16 14,2 C 12,8 C 9,4 C 90 % 1022,1 hPa 0,0 l/m 0 min 0 min 0 W/m 3,2 km/h (1 Bft) 95,74 %
23.09.2023 22:18 14,2 C 12,8 C 9,4 C 90 % 1022,0 hPa 0,0 l/m 0 min 0 min 0 W/m 3,2 km/h (1 Bft) 95,65 %
23.09.2023 22:20 14,2 C 12,8 C 9,4 C 90 % 1022,0 hPa 0,0 l/m 0 min 0 min 0 W/m 3,2 km/h (1 Bft) 95,74 %
23.09.2023 22:22 14,1 C 12,8 C 9,4 C 90 % 1022,0 hPa 0,0 l/m 0 min 0 min 0 W/m 0,0 km/h (0 Bft) 93,62 %
23.09.2023 22:24 14,1 C 12,8 C 9,4 C 90 % 1022,1 hPa 0,0 l/m 0 min 0 min 0 W/m 0,0 km/h (0 Bft) 95,74 %
23.09.2023 22:26 14,1 C 12,8 C 9,4 C 90 % 1022,1 hPa 0,0 l/m 0 min 0 min 0 W/m 0,0 km/h (0 Bft) 97,87 %
23.09.2023 22:28 14,1 C 12,8 C 9,4 C 90 % 1022,1 hPa 0,0 l/m 0 min 0 min 0 W/m 0,0 km/h (0 Bft) 95,74 %
23.09.2023 22:30 14,1 C 12,8 C 9,4 C 90 % 1022,1 hPa 0,0 l/m 0 min 0 min 0 W/m 0,0 km/h (0 Bft) 95,74 %
23.09.2023 22:32 14,1 C 12,8 C 9,4 C 90 % 1022,1 hPa 0,0 l/m 0 min 0 min 0 W/m 0,0 km/h (0 Bft) 93,62 %
23.09.2023 22:34 14,0 C 12,8 C 8,9 C 91 % 1022,1 hPa 0,0 l/m 0 min 0 min 0 W/m 0,0 km/h (0 Bft) 95,74 %
23.09.2023 22:36 14,0 C 12,8 C 9,4 C 91 % 1022,1 hPa 0,0 l/m 0 min 0 min 0 W/m 0,0 km/h (0 Bft) 95,65 %
23.09.2023 22:38 13,9 C 12,8 C 8,9 C 91 % 1022,1 hPa 0,0 l/m 0 min 0 min 0 W/m 0,0 km/h (0 Bft) 95,74 %
23.09.2023 22:40 13,9 C 12,8 C 8,9 C 91 % 1022,1 hPa 0,0 l/m 0 min 0 min 0 W/m 3,2 km/h (1 Bft) 97,87 %
23.09.2023 22:42 13,9 C 12,8 C 8,9 C 91 % 1022,2 hPa 0,0 l/m 0 min 0 min 0 W/m 0,0 km/h (0 Bft) 97,87 %
23.09.2023 22:44 13,9 C 12,8 C 8,9 C 91 % 1022,2 hPa 0,0 l/m 0 min 0 min 0 W/m 0,0 km/h (0 Bft) 97,87 %
23.09.2023 22:46 13,8 C 12,8 C 8,9 C 91 % 1022,2 hPa 0,0 l/m 0 min 0 min 0 W/m 0,0 km/h (0 Bft) 95,74 %
23.09.2023 22:48 13,8 C 12,8 C 8,9 C 91 % 1022,2 hPa 0,0 l/m 0 min 0 min 0 W/m 0,0 km/h (0 Bft) 97,87 %
23.09.2023 22:50 13,8 C 12,8 C 8,9 C 91 % 1022,3 hPa 0,0 l/m 0 min 0 min 0 W/m 0,0 km/h (0 Bft) 97,87 %
23.09.2023 22:52 13,8 C 12,8 C 8,9 C 91 % 1022,3 hPa 0,0 l/m 0 min 0 min 0 W/m 0,0 km/h (0 Bft) 97,87 %
23.09.2023 22:54 13,8 C 12,8 C 8,9 C 91 % 1022,4 hPa 0,0 l/m 0 min 0 min 0 W/m 0,0 km/h (0 Bft) 95,83 %
23.09.2023 22:56 13,7 C 12,8 C 8,9 C 91 % 1022,4 hPa 0,0 l/m 0 min 0 min 0 W/m 3,2 km/h (1 Bft) 97,87 %
23.09.2023 22:58 13,7 C 12,8 C 8,9 C 91 % 1022,4 hPa 0,0 l/m 0 min 0 min 0 W/m 3,2 km/h (1 Bft) 95,83 %
23.09.2023 23:00 13,7 C 12,8 C 8,9 C 91 % 1022,5 hPa 0,0 l/m 0 min 0 min 0 W/m 0,0 km/h (0 Bft) 97,87 %
23.09.2023 23:02 13,7 C 12,8 C 8,9 C 91 % 1022,5 hPa 0,0 l/m 0 min 0 min 0 W/m 0,0 km/h (0 Bft) 95,74 %
23.09.2023 23:04 13,7 C 12,8 C 8,9 C 91 % 1022,6 hPa 0,0 l/m 0 min 0 min 0 W/m 3,2 km/h (1 Bft) 100,00 %
23.09.2023 23:08 13,6 C 12,8 C 8,9 C 91 % 1022,7 hPa 0,0 l/m 0 min 0 min 0 W/m 0,0 km/h (0 Bft) 100,00 %
23.09.2023 23:09 13,6 C 12,8 C 8,9 C 91 % 1022,7 hPa 0,0 l/m 0 min 0 min 0 W/m 0,0 km/h (0 Bft) 100,00 %
23.09.2023 23:12 13,6 C 12,2 C 8,9 C 91 % 1022,7 hPa 0,0 l/m 0 min 0 min 0 W/m 0,0 km/h (0 Bft) 98,31 %
23.09.2023 23:14 13,5 C 12,2 C 8,9 C 91 % 1022,7 hPa 0,0 l/m 0 min 0 min 0 W/m 0,0 km/h (0 Bft) 95,92 %
23.09.2023 23:16 13,5 C 12,2 C 8,9 C 91 % 1022,7 hPa 0,0 l/m 0 min 0 min 0 W/m 0,0 km/h (0 Bft) 97,87 %
23.09.2023 23:18 13,5 C 12,2 C 8,9 C 91 % 1022,7 hPa 0,0 l/m 0 min 0 min 0 W/m 0,0 km/h (0 Bft) 95,74 %
23.09.2023 23:20 13,4 C 12,2 C 8,9 C 91 % 1022,8 hPa 0,0 l/m 0 min 0 min 0 W/m 0,0 km/h (0 Bft) 97,87 %
23.09.2023 23:22 13,4 C 12,2 C 8,9 C 92 % 1022,8 hPa 0,0 l/m 0 min 0 min 0 W/m 0,0 km/h (0 Bft) 97,87 %
23.09.2023 23:24 13,4 C 12,2 C 8,9 C 92 % 1022,8 hPa 0,0 l/m 0 min 0 min 0 W/m 0,0 km/h (0 Bft) 97,87 %
23.09.2023 23:26 13,3 C 12,2 C 8,9 C 92 % 1022,7 hPa 0,0 l/m 0 min 0 min 0 W/m 0,0 km/h (0 Bft) 97,87 %
23.09.2023 23:28 13,3 C 12,2 C 8,3 C 92 % 1022,8 hPa 0,0 l/m 0 min 0 min 0 W/m 0,0 km/h (0 Bft) 97,87 %
23.09.2023 23:30 13,3 C 12,2 C 8,3 C 91 % 1022,7 hPa 0,0 l/m 0 min 0 min 0 W/m 0,0 km/h (0 Bft) 97,83 %
23.09.2023 23:32 13,3 C 12,2 C 8,3 C 91 % 1022,8 hPa 0,0 l/m 0 min 0 min 0 W/m 0,0 km/h (0 Bft) 97,87 %
23.09.2023 23:34 13,2 C 12,2 C 8,3 C 91 % 1022,8 hPa 0,0 l/m 0 min 0 min 0 W/m 0,0 km/h (0 Bft) 97,87 %
23.09.2023 23:36 13,2 C 11,7 C 8,3 C 92 % 1022,8 hPa 0,0 l/m 0 min 0 min 0 W/m 0,0 km/h (0 Bft) 97,87 %
23.09.2023 23:38 13,2 C 11,7 C 8,3 C 92 % 1022,8 hPa 0,0 l/m 0 min 0 min 0 W/m 0,0 km/h (0 Bft) 97,87 %
23.09.2023 23:40 13,1 C 11,7 C 8,3 C 92 % 1022,9 hPa 0,0 l/m 0 min 0 min 0 W/m 0,0 km/h (0 Bft) 100,00 %
23.09.2023 23:42 13,1 C 11,7 C 8,3 C 92 % 1023,0 hPa 0,0 l/m 0 min 0 min 0 W/m 0,0 km/h (0 Bft) 100,00 %
23.09.2023 23:44 13,1 C 11,7 C 8,3 C 92 % 1023,0 hPa 0,0 l/m 0 min 0 min 0 W/m 0,0 km/h (0 Bft) 100,00 %
23.09.2023 23:46 13,0 C 11,7 C 7,8 C 92 % 1023,0 hPa 0,0 l/m 0 min 0 min 0 W/m 0,0 km/h (0 Bft) 100,00 %
23.09.2023 23:48 13,0 C 11,7 C 7,8 C 92 % 1023,0 hPa 0,0 l/m 0 min 0 min 0 W/m 0,0 km/h (0 Bft) 100,00 %
23.09.2023 23:50 12,9 C 11,1 C 7,8 C 92 % 1023,1 hPa 0,0 l/m 0 min 0 min 0 W/m 0,0 km/h (0 Bft) 100,00 %
23.09.2023 23:52 12,9 C 11,1 C 7,8 C 92 % 1023,1 hPa 0,0 l/m 0 min 0 min 0 W/m 0,0 km/h (0 Bft) 100,00 %
23.09.2023 23:54 12,8 C 11,1 C 7,8 C 92 % 1023,1 hPa 0,0 l/m 0 min 0 min 0 W/m 0,0 km/h (0 Bft) 97,87 %
23.09.2023 23:56 12,8 C 11,1 C 7,8 C 92 % 1023,1 hPa 0,0 l/m 0 min 0 min 0 W/m 0,0 km/h (0 Bft) 100,00 %
23.09.2023 23:58 12,7 C 11,1 C 7,8 C 92 % 1023,1 hPa 0,0 l/m 0 min 0 min 0 W/m 0,0 km/h (0 Bft) 100,00 %
_ Min-Zeit 06:20 03:42 05:38 15:30 00:00 - - - - 00:00 08:40
Minimum _ 10,9 C 10,0 C 6,7 C 73 % 1007,0 hPa - - - - 0,0 km/h (0 Bft) 53,33 %
_ Max-Zeit 16:14 11:38 11:52 01:04 23:50 01:20 14:10 00:34 14:54 11:54 00:04
Maximum _ 17,9 C 18,3 C 13,9 C 97 % 1023,1 hPa 0,2 l/m 5 min 2 min 784 W/m 41,8 km/h
S (6 Bft)
100,00 %
Durchschnitt _ 13,7 C 13,3 C 9,7 C 89 % 1014,8 hPa #0,4 l/m #2:49 h #22 min. 189 W/m 11,6 km/h (2 Bft) 97,30 %
© 2023 W. Hausmann